GFSWCAN_500_spd_057.txt.gz
Wind_Speed
31 29 22 24 25 22 18 22 21 23 25 27 39 34 29 26 26 28 26 24 24 25 25 25 24 22 23 23 22 25 28 28 28 28 29 30 29 29 34 35 36 39 42 45 44 49 54 50 47 46 42 39 38 41
33 32 30 24 24 21 17 18 24 23 28 31 39 37 31 27 26 26 26 25 25 24 21 25 23 22 23 24 25 26 27 27 25 26 26 27 30 31 30 30 35 39 42 41 40 45 46 45 45 45 44 37 36 37
36 35 33 28 26 24 21 23 23 20 29 31 36 40 34 30 29 27 27 27 24 22 21 23 27 23 21 19 21 24 25 25 23 24 27 27 29 32 34 34 31 36 40 41 41 43 43 43 44 44 42 37 39 39
38 37 35 29 27 28 23 21 25 26 27 29 35 43 38 33 30 28 27 27 25 22 22 22 21 18 17 18 20 22 21 22 23 24 27 29 27 29 33 35 34 35 36 40 42 43 43 44 45 44 41 39 37 36
40 39 38 30 25 31 28 24 25 26 28 29 37 39 43 40 34 31 27 25 27 23 19 22 22 20 17 17 16 17 17 18 19 23 27 29 31 32 32 33 36 37 37 37 40 43 45 46 47 47 48 47 44 41
39 41 40 36 27 32 32 27 24 24 28 27 37 38 38 43 40 34 30 28 30 26 23 20 20 20 16 16 16 15 14 15 17 20 25 29 31 31 32 32 35 38 40 42 42 43 44 45 46 47 48 46 44 42
41 42 43 39 30 31 35 32 28 25 26 30 29 30 37 43 43 37 33 30 28 27 25 24 22 16 10 11 12 12 13 14 16 17 21 26 29 29 28 28 29 35 38 42 44 47 42 40 45 49 48 43 45 47
41 41 41 33 26 31 36 35 31 28 27 31 32 31 35 42 44 38 36 34 31 28 28 25 19 17 13 12 13 13 13 14 15 15 18 21 23 23 21 25 30 33 36 38 40 41 44 45 47 46 42 45 47 46
37 36 31 24 24 33 36 37 32 28 26 30 32 31 31 41 41 38 37 35 33 31 28 23 20 20 16 10 11 12 11 12 12 15 17 16 14 17 18 21 25 26 28 29 31 34 35 36 37 38 40 39 40 41
35 36 33 28 21 32 35 34 33 29 27 29 33 31 30 43 42 41 38 36 35 32 25 22 23 20 16 13 11 11 10 13 14 16 16 14 15 15 16 19 20 22 25 27 26 29 30 28 26 24 25 21 18 20
40 39 40 35 28 29 31 30 32 31 31 27 30 30 31 42 45 43 39 37 35 29 25 23 22 17 13 12 16 16 13 14 15 15 16 16 17 16 18 21 21 22 25 28 28 28 27 21 15 14 12 12 11 10
50 49 47 43 37 33 32 36 34 33 32 27 30 29 33 44 44 42 39 37 32 28 26 24 22 18 16 15 16 15 14 13 14 15 16 14 14 17 14 14 16 17 19 18 19 19 19 17 13 10 13 13 14 17
45 48 54 56 48 42 32 37 32 32 33 27 29 35 38 43 43 39 37 32 27 25 25 24 21 18 16 15 17 15 14 13 13 15 17 18 18 19 22 22 22 24 21 23 20 20 20 20 14 13 12 14 15 14
41 38 39 45 51 41 41 36 35 37 30 26 26 37 40 39 36 29 24 26 27 27 24 23 24 18 15 16 15 13 13 13 13 15 16 17 17 15 14 12 15 17 23 18 15 14 16 18 18 17 16 17 19 23
44 38 38 40 44 42 38 38 35 33 29 28 35 44 42 38 34 31 33 31 26 26 25 24 19 18 18 16 14 13 12 12 14 13 11 10 10 9 12 17 18 11 7 10 11 11 14 15 16 18 16 17 19 20
46 40 36 39 39 43 32 33 33 30 33 35 37 38 37 37 34 27 26 26 25 22 21 19 19 17 15 16 13 12 12 11 10 8 10 9 6 7 6 8 8 7 10 12 11 11 12 13 13 16 16 14 16 16
34 36 41 40 44 37 35 34 36 38 37 36 38 37 38 36 31 27 24 23 21 19 17 19 19 15 13 12 11 10 10 9 9 9 7 9 9 4 4 4 8 10 9 8 9 8 8 10 12 14 15 15 16 17
40 39 38 38 38 39 39 43 43 39 39 39 37 36 32 27 24 21 20 18 17 15 18 19 17 13 12 11 11 9 8 9 9 11 13 10 13 9 7 6 6 5 6 6 7 7 7 9 12 12 13 14 15 16
46 40 37 38 40 40 44 41 38 40 39 35 28 29 29 25 20 17 14 13 14 16 19 18 15 13 11 10 5 5 8 11 10 5 7 7 9 10 9 7 6 7 7 6 5 4 6 7 7 8 9 11 12 12
47 42 37 39 44 42 40 41 43 39 38 35 34 31 25 20 15 10 11 12 11 14 14 13 11 12 12 7 6 6 10 9 10 11 9 8 9 9 8 10 10 9 10 10 10 10 9 9 10 11 12 13 14 13
46 43 44 44 43 42 45 44 39 36 36 36 32 25 21 17 14 12 9 10 12 12 11 11 11 11 9 7 6 4 2 5 10 10 10 9 11 11 10 10 11 11 9 10 9 10 9 12 8 6 9 9 8 8
42 45 43 39 39 43 42 39 37 35 32 29 26 22 18 15 13 11 10 9 8 7 8 10 12 10 7 9 8 6 6 9 12 12 12 12 13 15 17 15 13 14 12 11 11 9 8 9 6 3 3 5 6 5
43 43 40 38 37 36 34 32 30 27 27 26 22 20 16 12 8 7 6 4 4 5 5 6 9 12 12 11 9 11 14 16 14 12 13 14 14 14 14 15 17 19 19 16 12 8 7 7 5 4 3 4 6 5
38 39 37 33 32 30 29 28 25 33 29 22 18 16 13 10 6 2 1 3 3 5 6 5 7 8 8 9 10 12 14 13 14 15 15 14 13 12 14 17 10 7 7 8 8 8 7 6 5 5 6 7 7 8
38 37 34 31 28 27 27 28 32 30 24 19 16 12 8 6 4 3 5 7 5 4 5 7 8 10 12 10 10 12 12 12 12 13 15 13 15 12 7 6 5 5 6 7 6 7 7 7 7 8 7 7 8 8
34 31 31 30 26 23 22 28 32 28 22 17 13 8 5 5 6 8 9 8 6 6 4 6 9 8 7 6 9 10 10 11 12 15 16 13 8 8 7 6 6 5 6 6 8 8 7 6 6 6 6 6 8 7
32 30 28 28 26 22 23 26 26 23 19 17 13 9 6 5 7 9 9 7 7 6 5 5 5 6 8 8 10 10 9 12 7 3 2 4 5 7 7 6 6 6 6 7 8 7 7 7 8 7 7 8 9 11
29 29 25 25 25 23 23 23 20 14 11 12 12 12 9 9 7 6 7 6 4 3 4 5 6 6 7 9 9 10 8 6 5 5 6 7 6 4 3 3 4 5 5 6 8 8 9 9 10 11 11 12 14 15
26 25 25 26 23 19 18 16 15 15 11 6 6 8 7 6 3 3 4 4 3 3 5 6 7 8 9 7 2 3 3 5 6 6 5 5 6 6 5 5 8 10 9 11 12 13 14 14 14 15 16 17 19 19
21 21 20 18 17 15 15 12 6 4 4 4 3 3 3 2 2 1 2 4 5 7 7 4 3 4 3 3 3 1 1 0 2 5 7 6 6 7 8 11 11 11 14 14 14 13 15 16 16 17 18 19 20 21
22 19 17 16 13 9 5 2 2 2 4 4 4 3 1 1 4 7 6 2 5 11 11 9 7 5 5 3 1 4 5 6 5 6 7 7 8 9 12 13 14 15 16 17 15 16 17 16 17 18 20 22 23 22
14 11 9 9 8 8 7 6 4 3 3 3 4 6 5 1 6 9 10 9 6 3 2 1 2 4 5 7 11 12 11 11 12 13 14 13 12 14 17 19 19 18 18 20 20 19 19 21 21 24 22 26 23 19
13 12 11 9 8 9 9 9 9 7 7 10 13 13 13 11 8 8 6 4 4 5 5 2 2 3 6 7 8 9 9 10 12 14 16 17 20 20 19 19 19 21 23 23 23 25 27 26 25 23 22 17 15 16

GFSWCAN_500_spd_060.txt.gz
Wind_Speed
36 33 31 30 28 26 23 23 22 19 20 21 24 28 33 30 29 30 28 26 24 24 22 22 22 21 22 23 24 25 23 23 26 28 26 28 30 31 32 34 34 36 41 48 55 56 59 59 55 52 56 54 54 51
36 32 31 31 30 27 23 22 22 17 22 18 25 27 36 31 29 30 28 26 24 24 22 22 23 24 26 26 24 27 29 28 29 27 26 29 30 33 36 34 33 35 35 38 40 43 45 45 46 48 50 50 49 45
37 34 31 31 31 29 25 22 23 19 19 20 24 28 30 38 31 30 29 27 24 23 21 21 24 21 23 25 27 27 26 24 24 25 26 28 29 29 34 37 35 32 34 34 34 36 39 38 40 41 45 46 45 41
38 35 31 31 32 29 24 23 24 23 23 23 22 28 30 38 31 31 30 26 24 23 20 20 21 19 20 20 20 22 24 25 25 24 26 27 27 28 30 32 36 37 35 34 34 35 39 41 40 42 45 44 41 40
38 35 32 32 33 30 25 24 26 24 22 25 24 27 29 40 33 31 31 28 25 24 20 21 21 19 19 20 21 23 24 24 22 22 23 26 29 27 28 28 30 36 39 39 37 36 37 40 42 43 45 46 45 43
38 36 33 34 34 31 27 26 27 27 23 26 25 27 31 35 37 32 32 30 27 25 23 21 20 20 19 19 20 21 19 18 19 19 20 24 28 29 31 31 31 33 35 39 42 41 40 39 41 43 44 43 43 43
38 36 35 35 33 33 31 25 28 31 27 26 28 29 34 33 43 38 34 31 29 26 26 24 22 19 20 18 17 17 16 15 15 17 20 22 26 28 29 27 28 33 35 36 35 36 37 40 42 41 41 42 41 39
38 37 36 34 33 35 31 23 27 33 31 28 28 29 27 39 37 45 40 36 32 28 27 26 23 21 19 16 13 14 14 14 14 15 17 19 20 20 23 26 29 29 30 32 32 32 33 34 34 34 34 32 35 36
40 38 35 34 33 34 27 26 31 33 32 31 29 27 27 29 39 41 45 38 35 33 30 26 25 24 18 15 12 12 12 14 15 15 16 15 16 16 17 19 22 23 24 27 25 26 25 24 22 21 21 23 24 21
40 37 34 33 32 30 23 30 38 39 32 31 29 27 31 28 30 38 45 42 38 35 31 28 28 24 20 17 15 13 13 13 15 15 15 14 14 12 13 14 15 17 19 20 18 19 19 15 10 9 8 11 10 9
40 38 35 32 33 29 25 27 34 30 28 30 27 25 29 27 27 43 50 46 41 36 32 29 29 26 22 18 17 18 16 15 16 16 14 12 12 13 14 15 15 15 16 17 16 14 11 6 3 6 6 8 9 9
37 37 37 36 36 34 29 27 30 30 36 30 28 24 28 24 29 46 46 45 41 36 32 30 29 26 23 19 17 18 18 17 17 18 17 13 13 13 13 14 14 13 14 15 12 12 13 10 7 8 11 11 12 7
43 41 40 42 42 39 35 31 24 31 30 29 29 26 25 25 27 38 42 42 38 32 28 29 28 25 22 20 16 19 19 16 17 16 15 15 15 16 16 17 17 19 20 21 18 13 12 11 11 11 12 16 20 17
49 46 45 46 48 46 40 35 28 37 32 25 30 26 26 25 29 31 37 36 33 29 27 29 29 23 19 17 18 19 16 16 16 16 14 14 15 15 14 15 15 14 16 18 21 16 12 15 13 13 15 16 18 19
49 47 44 43 46 50 47 39 31 31 30 24 28 25 25 27 28 31 37 35 31 30 29 27 23 20 17 18 20 17 14 14 14 14 14 13 11 11 13 13 16 18 17 14 11 13 13 11 11 13 16 17 17 19
47 45 44 41 39 43 50 41 31 34 31 27 24 25 27 30 34 35 34 32 29 26 25 23 20 16 14 16 17 15 14 13 12 11 11 11 11 10 13 16 15 15 12 12 11 13 14 15 13 11 13 15 15 16
44 45 43 39 38 40 45 39 33 29 29 26 24 27 29 33 35 34 30 27 26 24 21 19 16 14 14 16 18 19 15 12 11 11 11 11 13 11 8 6 7 6 12 10 11 11 13 13 13 13 11 13 15 16
48 45 42 45 42 41 39 35 30 30 29 26 27 28 33 32 31 26 26 24 21 18 18 15 14 15 15 17 15 13 12 11 11 11 13 14 11 15 13 12 8 9 11 11 11 11 10 10 12 13 12 12 13 13
51 45 41 41 41 40 35 35 36 36 33 28 25 26 27 25 25 23 23 22 20 18 16 16 15 14 15 14 14 14 13 11 9 11 12 11 14 14 14 14 10 10 11 11 10 9 9 10 10 11 13 14 13 13
41 39 46 42 44 44 42 38 34 31 30 29 30 32 28 27 24 22 20 18 15 13 14 14 14 14 15 16 17 12 9 9 9 9 10 10 9 9 10 11 12 13 13 14 14 14 14 14 13 15 15 18 15 15
39 44 51 57 50 41 37 32 29 32 35 34 30 33 29 25 20 17 14 13 13 12 12 13 15 16 18 17 12 12 9 6 5 8 11 12 12 11 10 12 14 17 17 16 16 16 14 14 16 17 17 17 14 12
44 48 48 46 41 45 40 43 39 37 36 36 34 28 23 19 18 16 14 11 9 11 13 15 15 14 15 14 12 10 10 9 7 10 13 14 14 13 15 17 17 15 15 16 15 14 14 14 12 11 10 9 7 6
45 49 44 44 49 34 34 39 39 38 36 32 28 24 22 20 17 13 11 11 10 10 11 12 14 15 15 12 10 12 12 13 14 15 17 16 16 17 17 18 19 19 19 20 21 18 16 17 12 8 6 6 5 7
43 44 49 49 44 37 38 38 35 30 27 23 22 21 19 17 13 10 10 8 6 6 6 6 8 9 12 12 13 15 16 16 16 16 17 18 17 16 17 16 18 22 18 14 13 14 15 12 9 8 8 9 9 9
42 42 40 37 36 35 34 33 32 27 22 20 18 15 12 10 8 4 4 3 5 6 5 8 10 10 11 11 11 12 10 11 14 15 15 15 16 13 15 19 11 8 9 9 10 9 8 8 9 10 10 11 10 8
36 36 35 34 32 30 30 32 31 25 22 18 13 9 7 4 2 2 3 3 3 5 6 7 8 8 9 9 8 8 10 10 12 12 16 18 16 14 10 8 6 5 5 5 4 5 7 9 11 11 9 9 9 8
33 33 29 27 26 28 29 28 26 21 16 12 8 5 4 2 2 4 5 4 6 7 7 7 8 8 7 7 8 9 11 10 12 11 8 4 4 4 3 3 3 4 6 9 10 10 10 11 11 10 10 10 11 11
27 28 26 25 24 25 25 22 17 12 8 6 3 3 3 4 7 6 6 7 7 4 4 4 4 4 5 7 9 9 10 9 4 4 2 2 3 3 3 4 6 6 6 7 9 9 10 10 11 12 13 13 14 16
21 19 18 18 18 18 18 15 10 6 4 4 4 5 8 8 5 4 4 4 5 5 4 5 5 5 7 9 6 2 2 4 7 6 5 5 6 7 8 9 10 11 11 10 9 10 12 14 14 15 16 18 18 19
19 18 17 16 15 14 12 11 10 4 2 3 5 4 3 3 3 3 3 3 4 5 7 5 1 3 3 3 3 1 1 1 4 7 9 9 10 9 10 12 12 13 14 14 14 14 14 16 17 18 18 19 21 22
14 14 13 13 13 13 10 3 3 4 3 3 2 1 1 1 3 5 7 4 2 7 8 6 5 3 3 2 2 4 6 7 7 8 8 10 12 12 12 11 13 16 18 19 19 18 17 19 19 19 21 23 23 24
18 15 13 10 7 4 5 6 6 5 4 2 0 2 2 7 10 11 11 9 5 1 1 3 4 6 7 7 8 10 8 7 7 8 9 11 13 16 18 20 22 23 23 23 23 24 24 24 25 23 27 28 28 30
11 11 10 9 6 3 3 1 3 2 5 10 11 12 13 13 12 9 7 5 3 4 4 5 7 9 10 10 10 10 11 12 12 13 15 16 17 18 20 22 23 24 24 24 24 23 24 24 25 26 26 27 28 29

GFSWCAN_500_spd_063.txt.gz
Wind_Speed
33 33 35 31 24 24 26 27 21 17 19 17 17 18 16 22 25 26 26 27 26 23 21 21 17 15 14 18 21 19 19 19 21 22 23 24 26 28 31 33 34 36 39 40 41 43 49 55 53 50 51 50 50 54
36 36 36 29 25 24 26 27 22 17 18 16 16 16 21 22 28 26 26 26 26 25 22 21 22 22 21 23 22 20 21 22 24 23 20 20 22 25 27 32 33 34 37 38 37 36 36 36 41 46 49 51 53 54
39 38 33 29 26 25 26 27 21 18 17 17 17 20 19 24 30 28 27 27 25 25 24 22 21 20 21 21 22 22 20 22 23 23 22 21 22 23 25 28 31 36 34 34 36 36 35 33 33 35 37 37 40 42
37 37 35 30 27 25 26 27 22 17 19 21 17 20 19 23 25 34 30 28 26 26 24 21 20 19 21 21 20 21 21 20 21 22 22 22 24 25 25 26 27 29 35 36 35 35 36 35 32 32 34 36 37 39
38 37 33 30 26 25 27 28 25 19 20 23 20 19 20 24 27 27 33 29 28 27 24 22 20 20 18 17 18 17 18 17 18 20 22 23 25 25 26 28 27 27 27 30 36 36 36 36 35 33 35 36 37 38
39 35 34 30 26 25 27 27 27 22 20 24 22 19 22 21 26 26 32 29 29 29 25 21 21 19 17 17 17 17 17 18 19 20 21 22 23 23 25 25 28 28 28 29 29 33 37 39 39 38 38 36 36 36
40 35 33 30 27 27 27 27 27 24 19 24 25 21 21 22 23 22 34 29 31 30 27 24 20 17 18 16 16 16 16 18 18 18 19 21 22 22 23 24 28 31 31 31 30 30 31 31 32 33 34 34 35 35
37 34 33 31 28 29 28 27 27 25 20 26 27 26 23 22 23 26 36 32 31 31 29 27 22 18 16 15 16 15 15 15 15 16 16 16 18 19 20 21 23 24 24 27 26 25 25 25 24 23 25 23 23 23
36 34 34 32 30 30 28 27 27 25 22 28 30 29 25 23 24 28 32 38 34 33 31 26 22 20 18 16 15 15 15 16 15 15 14 14 15 15 15 16 18 19 20 19 19 18 17 17 16 17 17 16 16 15
38 37 35 34 32 31 29 28 28 26 26 32 30 31 28 25 30 26 35 42 40 37 33 27 24 22 20 20 18 17 15 15 14 13 13 13 14 14 14 13 12 13 13 13 12 12 13 13 12 13 14 13 13 12
42 40 38 36 33 31 30 30 28 25 28 26 30 30 29 26 25 26 26 38 45 41 35 31 28 25 22 20 18 16 16 16 15 14 14 12 13 14 13 11 11 12 11 9 7 4 5 6 10 10 11 13 13 15
46 42 39 36 34 34 32 31 27 30 33 38 30 28 27 25 25 28 25 34 45 43 36 30 28 25 22 19 18 16 19 19 17 18 16 14 16 15 14 11 10 12 12 10 8 5 7 7 10 12 14 18 17 20
49 44 39 36 35 34 34 33 31 30 27 25 28 26 27 26 24 26 23 35 38 40 35 32 28 23 22 21 19 19 20 18 18 17 16 15 16 15 15 15 14 15 16 15 15 13 12 11 12 13 18 21 23 19
49 44 40 36 35 36 37 35 35 32 22 24 35 27 23 22 19 20 19 28 38 37 35 33 27 25 21 20 20 21 21 19 16 14 15 15 16 17 16 16 16 17 16 15 14 16 17 19 18 18 19 21 22 25
53 49 45 42 40 38 39 36 36 31 22 24 30 28 24 20 19 21 19 29 36 36 31 28 25 22 22 23 23 22 19 15 12 15 16 16 16 15 15 16 18 18 17 18 19 19 16 17 19 17 17 19 22 23
52 50 47 45 44 43 41 39 35 31 23 30 30 22 23 19 19 21 22 31 35 32 31 28 26 21 24 23 20 19 15 13 15 14 15 16 16 16 16 16 15 14 15 19 19 15 12 14 15 15 14 16 18 18
55 49 47 44 43 42 41 37 36 31 23 33 26 23 18 20 21 23 25 28 29 30 27 21 20 21 19 19 17 16 15 16 13 15 16 17 17 16 16 13 10 13 4 2 3 8 10 11 11 11 12 14 15 16
50 50 48 45 42 38 35 35 37 29 27 29 21 18 18 23 24 25 30 29 26 22 21 21 20 19 17 15 15 15 13 15 17 16 15 16 16 16 13 14 14 14 10 5 6 7 9 9 11 12 13 13 13 14
50 47 46 41 35 32 34 38 35 27 27 24 19 19 23 27 29 31 30 27 25 24 23 21 18 14 12 13 12 12 12 14 13 11 14 14 15 15 16 14 13 12 10 9 10 10 11 11 12 11 11 11 11 11
54 51 46 43 42 40 38 38 29 27 26 26 30 26 29 25 26 25 24 23 23 22 19 15 13 12 11 11 13 13 10 11 12 15 14 13 11 9 10 10 11 12 13 14 15 14 15 15 16 16 15 15 17 18
59 55 51 38 35 36 35 33 39 34 32 35 34 28 26 25 24 23 25 23 19 14 12 11 9 9 12 13 13 11 12 12 13 14 12 11 10 10 11 12 13 14 16 18 18 17 16 19 18 18 18 17 16 13
50 49 47 39 34 41 47 46 35 30 31 32 32 33 30 27 24 21 19 16 14 12 10 8 9 11 12 13 13 13 13 13 13 12 10 11 11 12 12 15 17 17 16 18 19 19 19 17 16 17 17 15 11 8
52 46 48 45 43 34 25 36 36 32 40 34 33 29 26 23 21 19 16 14 11 9 9 9 11 12 13 13 14 15 15 15 15 15 15 15 16 16 17 18 17 18 18 18 18 21 23 24 20 18 16 11 8 7
52 45 45 41 34 39 37 34 33 38 34 30 28 27 24 22 19 16 12 10 9 8 8 9 9 10 12 14 15 15 15 16 17 18 18 17 16 17 18 18 19 19 18 22 22 19 16 14 11 14 12 11 11 11
44 43 38 39 38 37 37 38 37 33 29 28 26 23 20 17 14 12 10 9 8 8 7 7 8 11 12 13 13 14 15 15 16 15 16 17 17 17 17 17 16 18 13 10 9 7 5 8 12 13 12 12 13 14
39 38 39 41 40 39 37 34 32 30 26 22 19 16 13 10 8 7 5 4 5 6 7 7 8 8 9 10 12 13 11 11 11 13 13 15 17 17 16 14 10 9 8 6 6 6 8 8 10 12 14 15 16 14
37 39 36 36 36 33 30 28 26 23 20 16 13 12 10 9 7 5 3 2 3 4 6 8 9 8 9 8 8 9 9 11 11 12 12 9 5 3 3 3 4 4 4 6 8 10 11 12 13 12 13 14 15 14
30 29 28 30 32 29 24 21 19 16 12 11 10 8 5 4 5 4 2 2 3 5 4 3 3 5 7 8 9 10 10 11 8 4 3 1 1 3 4 4 4 5 6 8 9 10 10 11 14 15 15 16 17 18
27 29 29 27 25 22 18 14 10 7 5 4 5 4 1 4 5 4 2 1 1 2 3 4 5 7 8 9 9 5 2 3 4 6 5 6 7 7 9 10 10 11 12 11 12 14 14 14 15 17 18 20 22 22
24 24 24 22 18 14 11 11 8 6 5 4 3 2 2 2 1 1 0 1 2 4 6 6 4 2 0 1 2 1 3 3 3 5 8 10 12 12 12 12 13 13 13 12 13 14 15 17 18 19 19 20 22 22
21 19 18 16 14 11 8 2 4 4 5 6 5 4 2 1 3 4 4 4 2 4 4 5 6 5 4 3 3 5 7 6 6 7 9 10 11 13 14 16 17 18 19 20 21 22 22 22 23 23 24 25 26 24
17 16 15 12 7 4 5 5 5 5 5 3 2 6 13 14 14 13 10 7 4 1 2 5 6 7 8 8 8 9 10 10 9 9 10 11 13 16 18 18 19 20 22 24 24 24 25 24 24 24 24 24 24 27
11 8 7 7 8 5 4 4 4 6 10 14 15 14 13 11 8 6 5 3 5 7 8 7 7 8 10 11 12 13 14 14 16 16 17 20 21 21 22 21 19 17 18 19 19 19 20 21 21 21 22 23 22 20

GFSWCAN_500_spd_069.txt.gz
Wind_Speed
33 33 32 31 28 26 25 25 23 21 21 24 24 18 16 17 17 17 16 20 28 24 19 15 12 10 7 8 19 11 24 29 29 33 18 10 22 27 27 30 24 28 28 27 33 35 33 49 43 44 45 43 42 40
34 33 31 29 28 27 24 25 25 21 22 24 23 18 17 18 16 16 16 22 29 26 22 20 17 17 15 9 21 22 13 22 32 38 34 38 34 29 24 25 38 34 35 34 34 30 41 42 45 48 49 50 51 51
35 32 32 30 32 32 29 26 24 21 22 25 24 19 18 19 17 16 17 21 28 28 27 24 21 16 16 16 11 19 17 12 10 36 18 25 8 23 21 31 29 34 37 41 43 40 38 36 35 37 37 40 43 44
38 36 31 30 30 30 29 26 23 20 23 25 23 19 18 21 20 19 18 21 26 27 26 27 23 20 17 17 14 9 10 11 11 6 23 17 12 8 13 15 8 24 13 13 23 29 31 33 35 33 32 32 34 36
34 35 31 29 29 28 23 21 21 21 24 25 23 19 19 22 22 21 21 20 20 33 31 24 21 21 19 18 19 19 16 13 13 13 13 14 15 15 12 14 17 19 20 20 22 23 25 31 29 33 34 33 32 32
34 38 32 28 29 28 24 23 21 22 24 26 24 20 18 22 24 22 20 19 21 33 36 27 24 20 19 18 19 19 18 18 18 16 15 15 12 12 13 10 22 18 23 16 24 26 26 28 27 29 30 32 33 36
34 32 28 25 26 27 27 24 22 24 26 28 25 21 17 21 23 20 18 19 19 24 37 25 22 21 19 18 17 17 16 16 15 14 13 13 14 12 13 13 19 17 18 18 22 23 27 28 29 28 28 28 29 31
40 39 31 26 28 29 28 26 26 27 28 26 25 21 17 21 23 20 18 18 17 22 27 25 24 19 17 18 19 17 16 14 15 14 14 14 15 13 15 18 13 15 18 18 20 22 25 25 27 29 29 28 29 31
43 40 43 35 32 35 29 28 26 27 26 26 24 22 18 22 25 22 19 18 19 18 22 28 22 20 18 20 19 16 15 13 13 13 13 13 14 16 14 15 14 14 15 16 18 20 22 23 25 25 24 26 26 25
47 44 46 46 39 33 27 28 27 27 27 25 25 23 21 22 24 24 22 20 21 17 19 29 26 24 21 17 17 17 16 14 13 14 12 13 17 14 14 12 13 14 16 17 17 18 19 21 22 23 23 22 22 19
51 46 41 42 39 32 33 30 30 28 27 26 27 24 21 22 24 24 25 22 22 19 16 28 28 26 24 21 18 17 16 15 12 13 10 13 15 12 14 14 15 16 17 18 18 18 19 19 20 21 20 21 17 15
50 46 43 42 36 35 35 32 32 31 30 29 27 26 24 24 25 26 27 25 23 23 14 32 29 29 28 25 21 18 18 15 12 12 12 14 17 15 15 17 18 18 18 18 19 19 18 16 17 18 18 19 20 19
42 45 46 42 37 36 38 36 35 33 32 30 28 28 26 25 24 22 23 23 24 22 21 26 34 30 26 26 25 23 20 16 13 11 12 19 13 15 15 16 16 17 18 19 20 21 22 21 21 20 20 22 21 25
47 41 42 45 41 42 41 42 37 34 31 30 30 29 28 23 17 17 20 23 27 23 23 22 38 32 31 29 24 22 18 17 13 12 15 16 12 13 15 15 16 18 19 20 22 24 24 22 22 24 26 23 24 24
44 40 39 40 47 48 47 43 35 33 32 32 31 29 22 21 24 24 23 22 24 23 26 23 37 37 30 29 28 25 21 16 14 15 18 10 12 13 14 15 18 20 20 20 19 21 20 20 19 19 19 24 27 27
49 45 45 45 49 48 43 38 36 35 33 32 30 24 20 21 22 23 25 24 24 25 26 26 33 38 35 32 30 28 18 17 19 17 12 12 13 13 15 17 19 19 18 16 17 20 19 19 18 18 16 14 16 19
62 53 48 45 44 41 36 37 35 34 34 32 27 23 21 20 22 27 24 24 23 27 29 29 34 33 27 28 28 23 19 20 15 14 12 13 13 13 15 16 16 15 13 12 13 11 9 10 14 15 16 15 14 15
52 61 52 44 40 40 37 35 34 35 32 26 23 25 23 20 21 24 21 22 22 27 32 35 30 29 36 31 21 21 19 16 15 13 14 15 14 13 13 15 13 12 12 13 11 9 4 7 9 10 12 13 13 13
33 55 54 44 42 38 38 38 35 32 26 26 28 24 21 19 20 21 20 22 26 29 36 31 30 32 24 28 24 18 17 16 14 15 14 13 12 12 15 16 15 13 13 14 13 12 12 12 13 13 14 14 14 15
46 52 49 42 42 41 38 35 33 29 29 27 24 19 18 17 17 17 19 24 30 30 30 30 26 31 16 23 21 17 15 15 15 14 13 13 12 14 13 10 10 10 10 10 11 13 14 15 16 15 15 16 16 18
59 53 48 46 44 37 36 33 31 31 30 25 19 17 17 18 17 20 22 23 22 17 20 19 16 26 20 18 15 14 15 15 15 15 13 13 12 13 13 12 10 11 13 14 14 15 16 17 19 18 18 16 15 15
59 53 46 44 40 35 35 32 33 33 26 19 21 20 16 14 16 22 26 27 25 19 23 24 22 17 15 14 14 14 14 15 15 16 16 16 14 13 14 13 13 14 15 17 18 19 19 20 21 20 18 16 17 17
43 41 41 36 34 35 34 32 30 27 25 24 27 23 21 17 22 22 19 14 14 18 18 17 15 14 13 13 13 13 14 15 15 16 16 16 16 17 18 19 20 21 20 19 20 22 21 21 19 20 23 23 20 16
41 39 39 39 38 34 34 31 29 31 26 26 23 27 27 26 16 10 10 12 14 15 14 13 12 11 11 10 11 11 12 13 14 15 17 18 19 20 21 22 22 20 20 22 20 21 20 20 19 16 17 12 8 10
38 40 42 42 35 28 30 36 35 27 25 30 27 25 25 22 21 20 15 12 12 10 9 9 8 7 8 9 9 11 12 13 14 16 15 16 18 19 20 20 20 20 20 21 18 18 17 15 15 16 15 13 10 14
34 31 29 24 31 36 35 31 33 33 30 26 20 18 21 21 20 16 13 12 10 9 7 6 5 5 7 9 11 11 13 12 13 14 13 14 16 19 20 22 22 17 15 13 14 13 12 10 11 12 12 13 17 18
36 32 32 33 36 34 30 26 23 24 26 24 23 22 21 21 15 13 11 9 8 7 7 7 7 8 9 10 11 10 11 13 13 14 15 16 17 19 14 8 4 5 5 5 6 8 10 12 13 15 16 17 19 19
39 40 38 37 36 35 33 30 27 25 23 21 20 19 17 14 10 9 8 7 6 5 6 6 7 7 6 6 7 8 9 11 13 12 10 4 7 8 7 7 8 9 9 10 11 12 13 14 15 16 17 17 18 20
41 39 35 32 28 26 25 23 21 18 16 15 14 12 10 8 5 4 4 4 5 4 3 4 5 6 8 7 7 7 5 6 7 6 7 9 6 7 15 13 15 16 16 16 16 16 17 18 20 20 20 20 21 22
31 30 28 28 25 20 16 15 13 12 11 10 9 7 7 7 6 6 6 5 4 1 1 1 1 1 2 2 2 3 4 5 5 7 12 11 12 14 15 14 12 21 16 15 16 17 19 21 24 25 26 25 26 30
22 21 19 17 15 12 12 14 13 12 10 9 9 8 7 6 5 4 2 2 4 5 2 2 0 1 1 2 5 7 8 8 9 10 10 11 13 15 16 15 18 20 22 25 24 23 23 23 24 25 26 26 25 28
16 15 12 10 11 14 14 13 13 15 16 17 16 15 14 13 11 10 7 4 2 3 5 6 5 3 4 5 8 9 9 10 11 11 14 15 17 18 19 18 18 17 16 20 22 21 21 22 22 23 24 25 25 26
10 11 14 15 14 15 19 20 17 16 13 11 10 9 8 6 5 3 3 4 4 3 1 1 1 4 5 5 7 7 8 9 10 11 11 12 12 12 13 15 17 19 21 23 25 26 27 28 29 30 31 31 33 34

GFSWCAN_500_spd_072.txt.gz
Wind_Speed
32 31 30 27 27 26 24 23 23 23 24 24 24 24 25 24 20 22 22 21 20 21 26 22 13 4 3 16 24 20 16 22 20 25 23 34 27 34 32 37 39 39 34 30 38 39 35 46 42 34 36 41 36 28
33 32 30 28 27 25 24 24 23 24 25 25 25 25 25 24 19 23 22 20 17 20 27 23 22 15 11 8 9 26 13 11 27 27 23 17 41 26 36 38 17 46 40 28 39 39 52 53 44 40 42 39 36 33
34 32 31 29 28 28 27 26 26 26 25 25 27 26 26 24 19 23 23 18 17 18 26 25 23 20 15 12 13 13 23 15 20 24 30 33 33 21 26 20 10 29 33 27 23 35 44 40 40 41 46 51 50 47
33 32 32 32 31 30 29 27 26 25 27 27 26 26 25 23 19 23 24 19 17 19 25 33 29 22 19 16 15 11 10 15 10 14 22 36 34 18 21 35 26 41 41 37 43 46 44 46 48 44 40 37 42 41
35 35 34 33 32 30 28 27 24 23 24 23 24 26 26 23 20 22 23 22 18 20 22 25 22 27 23 19 17 16 9 9 9 11 14 34 24 12 9 12 18 29 22 14 15 19 24 31 17 27 37 43 40 39
37 35 32 31 31 30 31 30 25 23 25 24 25 26 25 22 20 22 23 20 19 20 20 23 23 23 21 20 18 17 16 15 13 12 9 11 18 10 10 14 15 24 19 17 23 24 30 19 21 26 27 32 35 35
37 35 34 33 32 31 28 28 24 23 23 23 26 27 26 21 20 21 21 21 19 19 20 22 27 27 20 19 18 16 16 16 14 13 11 11 14 15 14 14 17 25 18 1 11 12 19 25 23 25 30 32 34 33
38 37 35 35 31 30 27 25 24 24 22 22 26 27 25 21 20 20 21 21 17 19 19 23 26 25 18 18 16 16 15 14 13 15 13 12 12 13 16 20 15 16 16 16 19 15 19 25 23 26 27 27 30 33
41 40 36 37 35 32 32 24 25 26 24 25 26 25 23 20 20 20 19 20 17 17 17 13 21 27 18 14 16 15 14 13 13 12 12 13 13 14 14 13 11 12 13 18 18 18 21 24 23 24 25 26 28 30
42 41 40 39 37 37 38 32 27 30 27 26 25 23 22 21 19 19 20 21 18 16 15 14 17 16 18 16 15 16 13 13 13 10 11 10 12 12 11 10 13 15 15 16 18 20 20 24 23 23 24 25 23 26
40 40 40 39 38 38 36 37 37 28 25 23 25 25 22 22 21 19 19 20 17 15 16 15 16 17 19 15 15 13 12 15 10 9 7 10 12 11 12 13 15 17 18 20 21 22 23 21 22 21 22 25 18 21
42 42 42 40 38 39 39 36 33 30 31 29 27 26 24 24 22 19 16 18 17 17 17 20 19 32 20 22 19 15 17 13 14 9 15 14 15 10 14 15 17 19 20 23 22 23 24 23 24 22 24 21 20 18
44 44 44 42 41 42 36 30 35 33 33 32 30 28 27 25 20 15 15 18 19 18 19 18 16 31 19 18 20 15 16 10 9 18 12 21 12 12 15 16 16 19 20 21 22 22 21 21 23 25 25 23 21 20
45 45 45 45 43 41 37 36 44 40 40 37 31 29 28 22 16 14 16 18 20 19 18 17 14 30 31 24 25 10 20 23 19 14 15 14 9 13 14 18 18 17 19 20 22 22 23 23 25 29 25 24 26 26
41 40 42 41 41 37 38 41 38 31 32 36 31 29 25 20 17 17 18 18 18 18 17 20 17 19 34 23 26 22 22 19 16 16 22 12 13 14 16 16 17 18 18 20 20 19 19 23 24 11 14 23 19 23
43 44 44 44 43 39 36 40 36 33 33 31 32 27 24 20 18 19 20 23 20 17 20 21 18 18 28 28 25 25 15 17 19 26 19 13 15 16 17 17 18 18 19 20 20 17 16 19 20 15 26 20 21 18
41 42 42 40 41 39 38 39 37 36 35 36 29 26 24 20 20 18 19 21 21 20 18 19 20 24 17 26 35 32 28 31 31 29 12 14 18 17 19 19 16 17 17 16 14 13 14 14 13 14 18 16 16 17
28 41 41 38 38 39 38 37 37 39 36 33 26 24 24 19 17 18 18 19 21 18 19 18 21 23 37 29 24 15 13 17 24 20 14 15 17 18 19 17 15 16 17 17 17 17 16 16 13 13 11 11 12 14
22 32 44 41 35 35 32 31 34 33 31 28 29 26 18 17 19 15 15 18 18 18 19 19 24 23 25 22 12 16 19 24 24 20 15 17 18 17 15 15 17 19 16 16 17 17 16 17 17 18 17 16 17 17
19 28 45 41 34 31 31 35 33 28 27 25 21 16 16 16 13 12 16 14 17 14 16 15 22 24 27 28 27 27 27 23 22 19 16 18 16 15 13 14 16 13 12 14 15 15 16 16 18 18 18 17 18 19
18 36 46 39 37 36 37 31 28 24 23 19 16 16 15 14 13 14 16 19 19 15 29 22 12 18 33 29 16 19 19 20 18 18 18 14 12 13 13 14 15 14 15 16 17 17 17 19 20 23 22 21 20 22
38 55 53 46 38 32 30 30 23 21 20 17 18 17 13 15 12 11 10 12 13 17 26 23 23 23 19 18 19 17 16 18 20 19 15 15 16 16 16 16 16 17 17 18 20 22 24 24 22 24 23 24 21 21
49 52 50 42 36 36 32 27 24 23 26 20 19 20 14 9 7 10 11 15 14 7 9 10 12 14 14 10 9 13 17 18 16 14 14 15 17 18 18 19 20 21 21 23 23 23 23 24 24 24 24 23 25 23
52 51 46 43 38 35 30 27 27 29 24 20 17 19 17 16 11 12 15 11 9 7 5 8 8 10 12 13 14 13 12 12 13 14 15 18 19 19 21 22 23 23 23 23 22 22 21 23 23 21 22 23 20 17
43 39 37 34 31 28 26 25 24 18 19 21 25 17 13 19 17 14 11 13 12 15 12 11 12 11 11 11 9 9 11 12 14 14 16 18 19 19 20 21 21 21 20 21 22 22 19 18 18 17 16 16 18 16
43 37 33 30 28 26 25 28 30 27 25 25 21 20 18 14 12 9 13 13 15 9 8 8 7 6 5 5 9 10 12 11 13 13 14 16 15 17 20 23 21 16 12 13 11 8 10 10 10 11 12 12 12 15
33 38 39 38 35 34 35 39 32 28 25 22 16 16 18 19 13 10 13 13 9 6 5 4 4 6 8 9 10 10 8 10 11 13 14 15 15 9 8 7 6 7 9 6 9 9 10 11 12 14 15 15 16 18
37 35 32 29 32 36 26 24 21 18 20 23 23 21 16 11 9 8 6 5 4 2 2 5 5 7 8 8 7 7 6 9 8 4 4 2 5 6 6 6 12 14 13 11 14 15 15 18 18 18 18 17 18 20
36 31 30 33 32 28 27 23 21 19 17 18 18 15 10 8 7 5 4 3 2 3 4 5 5 6 7 8 8 7 3 6 10 10 10 7 8 12 10 16 16 14 16 11 14 16 17 17 18 24 22 23 24 24
32 29 27 26 23 21 21 19 16 15 13 10 8 7 6 4 2 4 4 3 1 1 3 2 3 5 4 1 2 5 7 8 9 7 10 15 19 18 18 17 15 13 14 12 22 24 22 19 21 25 27 27 27 26
26 24 21 20 18 17 16 15 13 12 10 9 8 8 7 6 6 6 4 2 3 4 7 7 5 5 5 6 8 9 10 9 11 9 11 11 12 17 20 19 15 20 17 19 23 20 22 25 25 26 25 25 25 27
17 17 19 20 19 18 17 15 16 16 16 16 15 14 13 12 14 11 14 9 4 3 3 5 8 5 7 5 5 9 9 7 7 10 11 12 14 16 15 16 16 18 20 22 23 24 25 27 26 27 27 28 28 29
18 18 17 17 20 21 20 18 14 13 12 11 10 8 8 7 6 4 2 2 5 5 4 5 4 7 7 9 10 8 10 8 9 11 13 14 15 17 19 20 21 22 24 26 27 28 29 29 29 29 29 29 28 30

GFSWCAN_500_spd_075.txt.gz
Wind_Speed
38 35 34 36 31 30 28 26 24 23 22 22 23 23 23 24 26 26 24 23 23 23 25 18 20 17 14 12 17 23 17 16 20 19 20 19 21 26 28 27 27 34 34 36 37 37 41 47 44 43 46 49 44 43
36 37 37 33 32 29 26 26 24 23 24 24 25 26 25 26 27 26 23 23 23 22 20 17 19 24 17 10 8 18 24 19 17 26 29 5 18 23 27 27 30 30 35 39 40 35 37 46 36 36 37 39 45 45
38 37 35 33 32 29 27 26 25 27 26 26 26 25 25 26 27 26 23 22 24 22 18 17 23 25 19 16 13 14 8 24 18 27 26 26 20 18 26 32 33 33 36 39 40 32 29 35 37 38 43 44 41 40
38 37 35 35 32 31 29 28 28 28 27 27 26 26 26 26 26 24 21 21 23 22 19 14 14 22 20 19 16 15 10 13 27 22 21 20 23 18 15 17 14 33 18 18 23 31 30 34 30 32 38 40 35 39
39 36 34 34 33 33 30 29 30 28 27 27 24 24 24 24 26 23 20 20 22 22 18 16 16 17 26 24 21 17 13 8 13 12 13 10 14 14 16 5 11 23 27 18 27 31 29 31 36 24 28 44 45 46
38 36 35 36 34 33 31 30 28 28 26 26 25 24 24 26 25 23 17 20 22 22 18 15 14 14 22 27 26 20 16 16 11 9 10 5 16 14 13 18 16 18 11 17 21 23 22 18 17 19 17 17 22 24
38 38 37 35 34 31 31 31 30 30 29 27 25 23 25 25 25 23 17 19 20 21 16 15 15 15 19 23 20 19 18 15 13 10 12 11 10 11 23 19 19 11 8 9 10 13 20 13 8 15 19 21 24 25
38 36 35 34 33 31 31 29 29 29 27 26 25 24 22 22 24 21 19 17 20 19 13 13 15 14 19 19 19 17 16 14 12 11 9 9 11 11 14 19 16 13 13 8 9 12 17 16 13 13 17 20 23 26
37 36 35 34 33 32 31 29 26 27 25 24 24 23 23 24 23 19 16 16 18 16 11 13 13 14 16 21 20 17 15 14 11 10 14 14 12 11 12 15 12 11 8 9 6 7 12 15 17 16 19 23 24 29
38 38 36 35 34 33 33 30 31 29 25 23 24 25 24 25 20 17 14 14 16 13 11 13 11 7 19 19 17 18 14 11 12 11 11 10 11 11 6 7 9 9 10 12 13 15 18 19 23 24 26 27 28 29
37 36 36 34 33 33 32 32 31 27 31 26 24 29 25 24 19 16 12 12 14 11 12 11 10 8 21 21 13 11 14 14 14 13 10 11 12 7 7 8 9 11 13 17 18 20 24 23 22 24 27 27 23 21
38 37 36 34 33 32 32 31 29 27 29 35 31 24 25 23 19 14 9 12 13 10 13 13 11 11 23 14 24 17 13 13 13 11 12 11 7 8 9 9 12 14 15 18 19 21 24 27 26 27 27 25 25 21
37 35 34 33 32 32 32 31 30 30 31 31 30 29 28 24 18 11 11 12 14 12 11 14 14 14 24 21 17 15 15 10 11 10 15 11 15 12 13 16 14 15 18 19 21 22 22 25 27 28 31 31 31 23
36 36 35 35 35 34 34 31 31 31 29 29 29 30 29 23 13 15 14 12 15 13 11 15 16 13 21 23 21 22 21 20 13 11 13 15 7 14 18 17 15 14 18 21 21 22 22 25 27 27 31 11 17 15
36 36 36 36 36 34 34 31 30 29 30 29 32 33 30 22 17 17 16 14 15 11 9 13 14 11 18 22 29 22 9 17 19 23 18 14 17 18 17 17 16 16 18 20 22 22 24 27 26 26 27 34 19 11
32 33 34 34 35 35 35 34 35 33 31 32 30 32 33 28 19 19 16 14 12 12 9 14 18 17 16 21 26 17 21 21 27 23 19 16 18 18 18 18 19 17 18 19 21 21 23 25 20 23 22 21 22 15
35 35 36 37 36 35 33 34 35 34 32 32 23 22 20 19 16 14 15 17 16 14 15 15 17 19 15 15 23 17 21 22 19 18 10 13 18 21 18 20 20 20 18 19 18 18 19 20 21 22 20 18 15 13
36 36 36 36 36 34 34 32 34 31 30 24 26 23 20 24 19 15 16 18 15 15 16 17 18 19 16 23 22 14 28 29 27 26 22 20 22 20 19 20 21 19 19 21 23 22 20 21 22 23 21 18 17 17
27 29 31 31 31 32 33 32 33 29 25 25 26 21 21 20 15 14 18 16 14 16 17 17 16 14 19 24 28 31 28 28 24 17 17 17 20 19 23 21 18 19 20 20 19 16 16 16 16 16 18 20 18 18
22 24 27 30 29 30 30 32 30 25 25 25 23 26 22 18 18 18 14 12 15 16 16 17 13 17 18 20 29 23 27 28 23 15 16 16 17 20 21 21 19 19 18 17 16 15 17 17 17 19 19 20 22 22
21 22 28 31 29 27 27 27 25 24 25 24 26 25 19 19 17 14 14 14 12 9 14 16 19 21 20 15 27 26 10 23 21 17 16 17 19 19 21 21 19 20 19 18 19 20 19 19 19 21 24 24 24 25
20 22 31 33 29 26 25 24 21 23 25 23 21 19 18 16 14 12 10 10 11 11 13 19 24 28 19 22 14 35 21 11 10 12 16 18 19 19 20 20 19 19 21 21 22 23 24 23 24 24 26 25 28 25
21 37 40 36 29 26 25 23 22 20 23 21 21 17 12 11 9 11 10 7 10 15 18 22 19 19 9 25 19 10 9 9 11 13 15 17 16 17 19 20 21 22 22 24 25 25 27 26 27 25 25 26 24 20
47 47 38 36 33 34 29 23 19 22 22 20 16 15 11 8 8 7 8 8 6 6 15 14 12 11 13 14 11 8 9 10 12 13 14 17 16 16 18 20 22 24 24 25 26 25 25 25 25 24 22 21 18 18
53 44 40 39 36 29 24 23 24 24 18 16 15 15 15 11 10 13 12 9 11 12 17 8 12 10 6 6 4 6 8 10 12 11 12 14 15 18 19 20 21 22 23 24 25 26 24 22 18 19 19 17 16 17
36 32 34 31 28 26 25 25 24 19 22 23 19 21 19 15 13 9 6 12 12 11 11 9 7 4 2 2 3 6 9 10 13 13 11 14 15 15 16 15 10 11 12 15 16 13 11 9 9 10 10 11 13 15
34 33 33 31 30 28 28 28 27 27 21 20 24 20 11 9 10 15 14 12 10 7 7 5 3 1 3 6 5 7 10 10 10 11 13 12 10 7 5 7 8 9 11 12 14 12 11 13 13 14 14 14 15 16
38 40 40 40 40 37 34 32 21 12 13 13 11 15 13 10 9 11 10 7 6 5 4 3 1 4 5 7 7 6 7 7 9 6 6 6 7 9 10 14 12 15 17 17 15 12 14 14 16 16 18 19 19 19
33 40 38 35 32 28 22 18 15 15 17 21 16 13 11 9 7 6 4 3 3 3 3 3 3 4 5 6 6 7 4 5 8 9 9 9 9 13 18 18 18 22 21 18 16 22 20 18 22 21 18 21 24 23
40 37 33 30 30 25 22 19 20 19 17 14 10 7 8 6 4 4 4 4 5 4 3 1 3 5 6 5 3 4 6 8 12 13 11 10 12 16 9 16 23 23 18 17 21 25 23 20 17 19 23 26 27 21
27 24 22 21 18 17 16 14 12 11 10 9 9 8 8 6 6 5 5 6 6 4 5 6 6 6 7 7 8 9 9 8 9 10 10 12 15 16 19 20 17 15 16 18 19 21 24 23 20 20 26 27 29 30
24 23 22 21 19 17 17 15 13 11 9 9 7 6 6 7 9 10 12 7 6 5 7 8 5 2 5 6 7 11 12 10 8 9 12 13 15 16 19 22 25 26 26 27 28 28 28 28 26 28 31 31 28 26
23 25 26 25 24 21 21 17 15 13 13 11 9 8 8 6 5 4 4 5 5 3 9 9 9 8 9 11 11 10 10 11 15 17 18 20 22 25 27 28 28 27 28 29 31 32 32 31 30 28 26 27 31 34

GFSWCAN_500_spd_078.txt.gz
Wind_Speed
43 38 38 38 33 31 35 35 30 33 29 27 24 25 24 25 25 26 25 25 24 23 24 23 20 18 20 24 17 17 15 14 18 14 12 13 15 18 14 16 20 31 29 24 24 27 29 32 31 38 39 40 38 39
45 41 39 35 33 35 34 32 34 32 27 26 24 24 25 26 27 27 24 23 24 22 24 23 21 20 22 21 12 7 11 21 22 15 12 14 10 17 21 20 19 25 32 29 26 26 28 28 31 31 34 29 30 39
44 42 39 38 34 35 34 33 32 29 27 26 25 25 26 28 26 25 24 22 22 20 23 19 18 14 13 18 11 9 7 13 18 22 19 15 15 15 20 22 29 27 31 30 32 34 33 33 35 34 37 39 36 37
44 42 40 39 39 41 36 35 33 30 29 27 27 27 26 26 25 24 21 20 21 19 21 18 16 14 13 19 17 14 11 14 18 15 20 16 13 14 8 6 26 31 25 27 28 28 30 36 34 34 17 22 29 34
43 41 41 39 37 38 37 35 32 30 28 30 29 27 26 23 22 21 20 22 19 17 19 19 13 14 12 19 22 16 13 17 16 14 15 18 17 13 11 8 7 9 14 24 30 25 26 14 27 30 23 21 28 36
43 41 40 38 36 36 36 35 30 31 29 30 29 26 24 22 21 21 22 21 18 17 18 17 14 14 15 19 23 22 19 18 17 7 8 9 10 14 11 11 6 7 9 7 12 18 11 9 7 9 11 8 13 14
42 41 41 41 40 35 34 32 30 30 30 29 26 25 24 23 23 22 22 20 19 16 17 14 13 14 14 15 15 20 26 21 16 13 11 13 13 13 14 12 11 6 3 6 9 6 11 9 7 12 12 12 15 18
42 41 39 37 38 38 35 34 31 29 28 27 24 24 24 21 22 19 17 18 17 16 16 13 12 14 11 13 16 19 21 17 15 13 10 12 12 8 8 4 9 16 14 14 11 11 11 5 5 7 10 12 11 14
43 40 38 37 36 34 34 33 31 28 25 24 22 22 22 21 23 18 18 17 15 15 15 13 11 11 10 13 14 19 18 15 14 12 10 11 10 9 7 6 10 10 9 12 9 7 7 5 6 10 15 18 21 24
40 37 35 43 33 34 33 31 29 27 23 20 20 21 20 21 21 20 17 15 13 13 13 12 10 10 12 13 16 18 16 16 15 12 11 14 17 13 9 7 10 10 7 6 8 5 8 11 14 17 20 22 24 28
40 39 43 41 35 33 30 29 28 26 23 24 23 22 21 18 18 19 14 14 13 13 12 10 12 11 9 14 17 16 19 17 16 13 11 9 9 11 10 10 10 11 10 3 5 10 14 17 18 20 22 24 26 27
38 38 38 36 35 33 28 28 27 26 27 23 22 25 25 22 17 14 13 14 13 13 11 11 11 10 12 16 17 15 16 18 16 14 13 9 9 7 8 9 9 6 7 9 9 12 16 18 22 24 25 26 26 28
36 35 34 32 31 31 30 28 26 25 26 24 21 23 24 22 18 13 15 16 14 13 11 10 9 10 14 19 25 14 15 16 17 14 14 14 11 10 10 11 11 12 14 15 15 17 19 22 25 24 24 26 26 23
34 33 32 30 31 32 30 29 28 26 24 22 21 22 22 18 16 18 17 16 13 12 13 11 11 13 16 18 20 21 17 18 16 11 8 13 7 10 11 12 11 13 16 18 19 20 22 23 25 28 28 29 29 25
32 31 31 30 30 29 29 29 28 26 25 23 21 20 19 19 20 20 20 15 11 11 15 13 14 15 18 19 24 25 23 20 16 12 7 8 7 6 12 14 13 13 16 18 18 20 23 23 25 25 21 20 21 22
30 30 32 30 28 28 29 29 28 26 24 23 21 19 17 17 21 21 20 16 13 13 14 14 14 14 14 14 20 30 22 12 15 14 14 12 11 12 15 16 15 16 18 20 23 23 21 22 24 24 19 18 20 19
32 35 36 36 33 29 28 28 28 27 26 22 17 19 18 18 20 21 20 16 16 16 12 15 15 16 15 15 19 23 18 15 15 14 19 15 12 13 16 18 20 18 20 23 24 22 22 24 28 27 24 20 17 18
29 29 30 29 29 29 29 29 28 28 24 20 22 22 22 20 18 22 22 20 17 16 16 18 17 15 16 19 20 23 21 16 19 19 14 16 13 18 22 17 15 18 21 23 22 20 23 26 25 21 18 15 14 15
29 29 30 29 29 29 29 28 28 26 18 21 24 21 21 20 21 23 17 19 17 16 17 15 16 16 20 22 21 27 21 6 6 13 17 17 18 17 19 16 17 20 22 20 20 21 22 21 20 19 20 19 17 17
26 26 27 28 28 25 26 27 24 21 22 22 22 20 23 19 17 18 14 17 16 16 15 15 16 19 19 22 27 25 21 14 21 20 18 15 19 24 19 17 19 20 19 20 22 22 22 20 20 21 24 23 21 23
23 23 21 23 25 24 23 27 26 24 24 22 25 22 22 22 17 15 16 15 13 10 11 15 17 19 21 24 20 21 25 22 24 12 21 19 13 12 13 15 18 20 20 20 23 25 23 24 25 24 25 26 28 27
21 20 20 20 23 20 22 25 25 27 26 25 19 16 17 17 13 12 13 12 12 11 11 13 14 18 25 28 9 4 16 15 12 23 26 20 16 16 18 18 18 19 20 23 25 26 27 28 27 27 27 26 27 28
21 18 22 24 23 21 22 22 23 22 22 22 21 17 12 12 13 13 13 11 11 10 12 11 15 18 22 21 20 5 9 19 14 12 12 16 16 15 15 16 19 20 22 25 26 27 28 27 28 27 26 25 25 25
22 28 31 26 23 23 26 25 25 26 25 22 19 18 16 15 11 6 4 6 11 15 8 12 17 18 22 11 11 13 9 11 11 14 13 12 12 14 17 18 19 21 23 24 26 27 26 25 25 24 23 22 20 19
37 38 33 29 32 31 27 28 27 25 24 23 23 19 14 14 12 10 8 7 9 12 16 15 10 14 15 14 11 10 9 7 10 13 12 12 14 14 15 18 20 21 21 14 13 16 15 17 15 14 14 14 13 12
40 35 35 29 28 29 30 29 26 24 23 20 19 17 16 13 11 12 14 17 19 18 18 17 14 12 9 9 7 5 7 9 10 8 11 13 15 17 18 20 17 8 8 12 14 16 16 11 12 14 16 17 17 17
40 35 31 32 33 32 28 27 27 30 31 28 23 20 17 12 13 25 20 20 15 12 11 9 8 8 7 4 4 5 8 10 10 9 12 15 13 11 8 8 10 14 15 14 17 16 15 13 17 18 16 16 18 20
35 34 34 35 35 37 37 33 29 25 19 19 19 21 20 16 16 15 15 14 11 7 5 3 2 1 1 2 4 5 5 7 9 7 6 10 12 11 12 12 16 16 14 20 23 23 21 17 17 19 20 24 24 23
40 38 37 30 31 25 26 26 20 19 21 20 18 15 16 14 12 12 9 7 4 4 4 2 2 2 3 3 3 4 4 5 7 9 10 12 13 12 13 19 15 18 21 24 24 22 21 23 24 21 20 21 21 23
35 28 30 28 25 25 25 28 25 22 18 15 15 12 9 9 8 8 8 9 9 7 5 6 5 4 4 4 5 5 7 8 10 13 12 12 13 15 17 17 20 18 19 21 22 23 24 23 23 24 25 26 25 29
26 24 27 27 23 22 20 18 15 12 10 10 10 10 10 10 10 10 9 7 5 6 5 5 5 4 5 5 4 5 9 10 11 11 12 13 14 16 18 19 20 24 27 28 27 27 27 28 28 28 28 28 29 31
24 22 20 17 17 16 15 14 13 12 11 10 9 10 8 5 3 8 10 6 5 2 4 6 8 6 6 7 7 10 12 13 14 14 14 16 19 22 25 28 30 32 31 31 30 28 29 30 30 29 27 27 27 26
26 25 23 20 19 19 17 17 17 16 14 12 12 11 11 9 10 5 2 2 4 7 12 14 12 10 12 13 12 9 9 12 16 19 22 26 29 31 31 29 26 26 27 29 29 29 30 29 27 28 31 31 31 31

GFSWCAN_500_spd_084.txt.gz
Wind_Speed
48 46 44 43 45 43 43 41 39 37 33 32 30 30 31 33 30 30 28 29 28 26 28 25 24 24 25 24 23 22 22 19 16 13 12 11 6 6 6 8 8 11 14 18 20 19 15 11 13 15 14 13 12 8
48 44 43 42 42 43 42 41 40 38 35 32 29 32 31 31 31 30 29 28 28 24 25 23 21 22 24 22 21 20 20 15 10 7 12 13 11 8 12 8 11 13 14 18 19 22 21 16 17 18 16 16 16 17
51 48 45 42 41 40 42 41 40 39 37 35 33 32 32 32 32 29 27 25 23 22 22 23 19 22 20 21 18 19 21 17 10 5 5 9 14 11 9 9 12 14 19 19 22 26 26 25 21 17 19 21 22 19
53 51 47 44 41 40 40 41 41 40 37 36 33 33 30 28 28 29 27 23 22 18 19 21 20 20 17 17 17 18 16 20 11 9 8 8 10 16 12 8 10 11 16 24 21 23 25 23 19 20 18 20 21 21
53 51 48 46 42 40 40 41 39 39 38 39 37 33 29 26 27 28 24 22 18 17 16 18 18 17 17 17 17 15 16 22 17 12 11 10 12 12 14 14 9 7 6 11 14 23 19 17 20 19 18 22 19 18
49 49 48 45 43 41 40 40 38 35 43 38 34 32 29 26 26 24 22 20 16 16 16 18 16 15 15 16 16 16 16 20 21 16 14 11 11 6 9 12 9 7 2 6 11 15 16 20 22 20 20 12 6 10
46 46 46 45 43 41 40 39 36 35 35 34 30 27 27 25 23 21 20 15 15 17 18 17 16 16 16 17 16 16 17 21 20 20 16 13 13 7 6 12 11 10 7 6 6 7 7 11 12 9 9 9 7 5
44 44 44 44 42 40 39 38 37 34 33 29 26 25 26 24 21 18 16 16 15 15 16 15 16 17 16 15 14 15 16 17 18 18 19 16 14 6 6 15 13 13 13 11 8 3 5 5 7 4 5 5 5 5
42 42 43 42 40 41 38 37 36 33 27 26 23 23 21 19 18 17 18 16 15 16 15 14 14 15 14 14 15 14 15 14 13 15 16 14 12 6 14 13 15 15 10 10 8 6 5 5 6 5 6 7 7 8
40 41 41 42 41 40 40 37 33 30 29 24 20 19 19 20 20 19 15 15 15 15 14 15 14 14 13 13 13 12 14 14 15 12 10 11 13 15 9 8 7 8 9 11 11 11 9 10 11 9 8 8 6 7
37 39 40 41 41 39 37 33 30 26 26 23 21 23 19 19 17 15 15 15 15 15 14 14 14 13 13 13 12 14 13 15 14 10 9 10 12 14 12 9 9 6 8 10 10 10 11 10 8 7 7 8 9 11
34 37 39 40 39 36 33 29 28 28 25 28 23 23 22 18 16 16 16 15 14 14 13 12 12 13 13 12 13 12 12 14 11 10 9 11 10 9 10 12 12 9 8 9 9 10 10 9 9 9 9 11 12 13
31 35 37 37 35 32 30 30 29 33 27 21 24 23 20 20 17 17 16 11 10 11 11 11 12 11 12 12 11 13 14 14 11 13 10 10 9 9 11 10 11 11 7 8 10 13 11 9 10 11 12 13 14 14
31 35 36 33 32 31 29 28 29 25 24 24 21 20 20 19 22 22 19 14 12 10 10 11 11 10 11 13 13 14 15 16 14 12 14 9 9 14 18 20 16 12 9 10 10 7 9 10 11 13 15 15 16 14
33 34 33 31 32 28 26 29 32 25 25 22 21 23 22 19 16 16 17 17 14 13 13 12 11 10 9 11 11 18 17 16 16 16 17 15 13 15 14 16 15 12 10 10 9 9 11 12 14 16 17 18 19 18
33 33 31 28 29 29 27 22 25 25 21 20 20 20 18 17 17 16 16 14 15 14 13 13 12 12 9 11 12 12 16 19 15 17 17 12 11 10 10 14 10 10 9 9 12 13 15 17 19 20 20 21 20 19
39 33 27 28 28 29 31 27 23 24 21 21 20 19 18 17 16 17 19 17 16 14 14 13 13 12 11 13 17 19 19 22 22 21 23 20 12 14 17 12 14 12 11 13 11 12 15 16 18 19 21 22 21 18
24 37 44 30 28 28 27 26 21 21 24 22 19 18 17 16 16 16 15 16 16 15 13 17 15 13 12 11 14 17 22 27 26 24 28 25 24 15 18 17 17 15 11 11 12 13 14 19 21 22 23 23 22 21
22 24 25 29 27 26 24 21 20 21 22 22 20 17 16 15 15 16 17 16 16 17 16 17 17 14 13 12 13 15 20 21 23 28 28 22 26 20 18 17 16 18 15 15 16 15 19 20 22 24 24 25 25 25
27 27 26 27 27 25 23 19 17 20 22 22 19 16 14 14 14 14 14 14 14 17 19 20 21 19 16 16 14 15 19 20 20 22 24 23 30 22 15 17 17 14 12 13 15 19 21 22 22 22 24 26 28 30
28 26 27 26 25 24 22 19 17 20 20 18 16 14 14 13 12 13 13 11 12 13 18 21 18 15 16 18 17 12 16 20 19 17 19 4 2 9 12 12 12 13 15 17 19 21 21 22 25 27 27 29 29 31
26 26 27 27 20 18 18 20 19 20 18 15 15 14 13 13 13 15 13 11 13 15 16 15 15 14 13 14 12 9 11 12 16 16 18 7 9 11 10 15 18 20 20 21 21 20 22 24 24 25 28 27 26 26
21 22 22 22 22 22 20 19 20 19 17 15 13 14 15 14 14 13 9 12 16 17 13 11 9 11 14 12 8 8 9 10 11 13 12 13 16 13 10 13 17 18 19 21 22 23 21 22 17 21 22 20 21 22
18 18 18 18 19 21 21 20 18 17 16 17 18 16 12 11 10 9 11 12 11 11 11 11 11 14 14 10 8 11 10 4 5 10 17 13 13 16 15 15 16 17 20 23 21 20 16 13 15 16 18 18 17 19
17 18 17 17 19 20 18 17 18 20 20 19 15 15 11 10 9 5 6 4 6 9 11 13 14 12 13 12 12 9 8 9 5 6 8 10 14 16 17 19 21 22 21 22 19 14 15 17 19 21 22 22 23 24
20 19 19 20 20 20 20 21 21 23 22 20 18 17 15 12 8 6 10 9 10 9 9 10 10 11 14 8 6 7 4 5 5 8 10 12 15 17 17 17 16 15 15 14 14 16 21 22 23 25 28 28 26 24
24 24 24 23 23 22 23 24 24 24 24 23 21 18 14 17 21 24 16 17 13 13 15 14 13 11 8 7 6 6 5 6 9 10 11 13 14 15 15 17 18 19 18 19 19 23 23 23 25 24 26 28 27 26
26 25 25 26 27 29 28 27 26 26 26 25 25 22 20 21 21 18 12 10 8 8 9 8 6 4 3 2 1 2 4 6 8 10 9 12 15 16 18 19 20 20 19 22 24 23 24 26 28 30 33 35 34 32
28 27 26 28 27 30 32 26 31 33 25 25 23 21 20 16 13 11 10 10 9 9 8 7 7 7 5 4 3 3 4 6 9 11 13 15 17 17 18 18 19 19 22 24 25 26 29 32 35 37 37 34 31 30
41 40 33 34 34 33 35 36 32 30 28 25 22 17 14 12 10 10 10 9 9 9 8 5 5 6 6 6 7 7 8 9 10 13 15 15 16 17 19 21 24 27 30 34 35 36 35 34 34 34 35 34 34 34
34 33 33 33 30 28 26 25 23 22 21 19 18 19 11 9 12 10 9 8 7 5 5 7 10 9 7 8 9 11 13 14 16 17 18 20 22 24 26 28 28 27 27 28 29 31 31 32 32 32 32 33 33 33
30 28 26 26 26 26 24 23 24 18 13 14 13 11 10 9 6 4 4 4 4 2 5 9 11 10 9 10 11 12 13 15 18 19 19 18 18 19 22 24 26 28 29 31 31 31 31 31 31 31 30 30 29 30
25 26 26 25 27 27 24 21 19 19 16 14 12 11 10 6 2 2 6 7 6 7 11 13 12 11 10 10 11 11 12 13 15 16 17 18 20 22 24 25 27 29 29 29 29 30 30 29 29 29 29 29 30 30

GFSWCAN_500_spd_087.txt.gz
Wind_Speed
54 50 48 45 43 41 39 37 37 38 38 36 34 32 32 30 31 32 31 30 29 27 28 26 25 24 22 22 17 20 21 22 22 20 14 12 14 8 9 9 11 13 13 11 12 17 18 15 10 7 7 4 3 1
52 50 47 44 41 39 38 37 36 36 37 36 36 34 33 32 32 32 27 26 26 26 27 26 23 21 23 18 16 19 20 21 20 16 11 11 13 15 14 16 15 15 13 11 14 13 15 16 12 10 5 4 8 6
51 50 47 45 42 39 36 36 35 36 36 37 36 35 33 34 30 32 29 28 23 22 24 24 20 20 19 16 17 19 19 17 14 13 10 9 11 14 15 11 13 13 14 18 14 16 18 19 16 15 12 12 14 16
49 49 48 46 44 41 39 36 35 35 35 35 34 36 33 34 32 28 27 26 24 22 21 22 19 17 17 17 18 16 16 15 12 15 12 8 8 11 18 14 10 11 14 17 20 19 18 20 17 18 22 21 18 17
46 46 47 48 45 42 40 38 36 35 35 36 33 34 34 32 31 27 25 24 23 20 19 21 16 13 15 16 17 16 17 16 14 16 14 13 10 11 13 17 16 13 13 12 18 21 20 19 20 21 21 20 19 20
44 44 44 45 45 44 41 39 37 36 36 34 34 33 33 31 29 27 24 22 20 20 20 20 13 14 16 15 16 16 16 14 12 15 17 15 15 10 10 11 13 11 11 9 11 12 14 17 16 13 15 18 19 16
43 43 42 41 41 42 42 41 39 36 34 33 32 31 30 29 24 23 22 19 19 18 18 17 15 16 17 16 17 17 16 16 15 15 18 18 15 9 7 12 14 11 11 7 10 13 14 12 10 12 13 8 4 8
37 42 41 39 39 40 41 40 39 37 33 31 29 28 27 23 21 24 22 20 19 18 17 16 16 15 14 16 17 16 16 16 15 13 17 19 18 11 9 17 11 12 10 11 10 3 6 5 3 5 13 4 5 4
37 38 41 39 38 39 40 40 38 35 32 29 27 26 22 21 20 20 21 19 19 18 16 14 14 14 12 14 14 13 14 15 13 13 14 14 14 11 13 10 10 10 13 14 11 6 3 5 7 5 5 5 5 7
38 37 39 38 37 38 39 38 35 27 29 28 26 23 22 18 15 17 19 19 17 18 16 15 14 13 14 13 12 12 13 12 12 13 14 13 15 11 10 8 8 9 15 15 11 8 7 6 7 6 7 7 8 9
35 36 37 37 36 36 35 34 33 33 29 25 24 18 21 22 21 15 17 18 18 17 15 14 12 12 13 12 11 11 11 11 12 13 11 8 9 10 11 9 7 11 11 9 9 10 10 10 9 8 8 9 10 11
32 34 35 35 35 35 34 36 30 24 25 26 27 24 22 17 18 16 17 19 18 15 13 12 11 11 10 10 10 10 10 11 12 14 11 10 11 11 11 13 12 12 13 10 9 11 13 12 11 9 7 11 13 13
30 31 33 34 35 37 38 34 28 27 27 26 24 24 22 20 19 15 17 17 13 11 12 11 10 9 8 8 9 10 10 11 14 17 14 11 12 12 12 13 14 15 13 10 9 10 11 11 11 11 11 14 15 15
30 31 33 34 34 34 32 30 28 26 27 26 19 23 21 20 18 17 17 15 11 7 8 10 9 8 7 7 8 7 9 12 15 17 17 11 14 13 16 12 14 17 10 10 10 10 12 13 13 12 14 15 16 17
28 31 33 34 34 33 31 30 31 30 28 26 18 22 21 19 18 19 17 17 14 12 11 9 8 7 7 7 8 10 13 16 18 19 15 17 16 15 15 18 21 24 18 13 12 13 14 13 13 15 16 18 19 19
29 33 34 33 32 31 30 30 29 25 23 24 22 21 20 19 16 16 18 16 14 14 12 10 8 8 8 7 5 5 10 16 16 22 18 19 21 16 11 12 19 14 14 13 12 14 15 16 16 17 19 18 18 18
31 35 33 32 32 31 28 31 32 27 25 23 21 19 18 17 17 16 15 16 15 14 13 11 9 8 7 8 9 11 11 13 15 18 18 20 21 20 9 12 13 23 17 12 12 13 12 13 13 15 17 18 18 19
35 38 33 37 34 31 31 23 24 27 21 22 20 17 17 17 17 15 15 15 15 16 15 9 12 10 8 7 9 11 15 18 18 18 19 22 19 18 8 15 16 13 13 13 14 16 16 17 17 17 17 18 20 21
34 35 33 33 32 32 28 25 26 28 23 23 19 16 16 15 13 12 12 14 15 15 14 13 11 11 9 8 8 9 11 14 18 20 23 24 21 18 21 21 15 15 13 13 15 20 19 15 16 18 20 22 24 26
31 33 28 25 28 27 26 26 26 27 26 22 19 16 14 13 13 13 14 13 13 13 14 17 16 13 11 11 10 8 10 12 13 14 14 13 12 17 20 21 17 14 14 15 12 15 17 17 18 20 23 25 24 24
43 39 32 30 30 30 29 26 25 24 21 18 16 14 13 13 13 12 11 12 14 15 15 15 16 15 13 12 13 12 10 10 10 11 8 10 8 5 2 5 11 12 12 14 17 20 19 19 20 23 22 20 21 20
30 32 31 29 29 29 26 23 20 18 17 15 16 15 14 12 10 10 10 10 11 13 11 11 11 13 13 14 14 13 8 7 5 8 9 11 8 2 3 7 11 13 16 19 20 21 21 22 23 22 20 21 19 17
28 28 29 29 28 27 20 18 16 15 14 15 15 13 12 10 9 7 7 9 10 6 4 5 9 12 12 9 9 8 6 4 2 2 6 15 10 8 2 6 10 14 17 17 19 20 22 24 24 21 20 19 19 20
22 22 23 22 20 19 18 17 16 16 16 14 13 10 6 3 4 5 7 7 6 7 7 7 8 7 6 6 6 4 6 7 3 5 10 7 9 9 8 13 15 16 18 21 22 24 24 24 22 22 20 20 22 25
20 20 20 20 20 20 19 18 17 15 14 13 10 7 8 4 4 4 2 2 5 7 9 10 10 7 6 8 8 3 3 1 6 8 7 5 4 6 10 13 16 18 20 22 22 22 20 18 20 22 24 23 24 25
18 19 19 19 20 20 19 17 15 14 13 14 15 12 12 11 9 13 15 14 16 11 11 9 7 7 4 8 9 12 7 3 2 2 3 6 8 11 13 14 15 15 17 20 22 21 22 24 26 26 25 23 23 26
20 21 22 22 20 18 17 16 17 20 21 19 19 18 20 22 17 15 15 18 16 17 17 17 14 12 9 6 5 5 0 3 4 6 7 9 10 11 13 15 17 18 19 19 19 20 21 23 25 26 28 29 30 33
22 23 23 23 24 26 26 27 26 26 24 21 20 24 21 19 17 12 12 12 12 11 11 10 9 7 5 4 2 2 3 5 6 7 8 10 12 14 15 16 16 18 19 21 25 27 29 31 33 35 36 36 36 35
29 28 28 28 30 33 35 35 31 26 24 22 27 23 18 12 12 11 10 10 12 13 14 12 11 10 10 8 5 4 6 8 9 10 12 15 16 17 19 21 23 25 27 28 29 29 30 31 32 32 33 33 34 34
35 35 32 33 34 32 32 32 28 29 26 24 19 16 12 11 11 11 12 12 11 11 12 12 9 6 5 4 6 8 8 9 11 13 15 17 19 21 21 22 22 24 26 28 30 32 33 34 34 34 34 34 34 33
35 39 40 31 31 27 29 27 23 23 20 19 20 15 13 14 12 10 10 9 8 8 11 10 10 8 8 9 10 11 11 11 13 14 15 15 15 17 18 20 21 23 25 27 28 30 31 31 32 32 31 31 31 31
31 31 31 29 28 27 25 21 16 14 13 13 10 9 10 7 5 7 8 9 7 6 7 11 13 12 10 9 9 10 10 10 11 13 14 15 17 19 20 21 22 25 27 28 29 30 30 30 30 30 29 29 29 30
29 27 26 25 24 20 16 12 12 12 13 12 12 11 8 5 5 6 5 4 5 6 7 9 12 13 13 13 13 14 14 14 15 17 18 19 19 19 20 22 24 26 27 29 29 30 30 31 31 31 31 31 31 32

GFSWCAN_500_spd_093.txt.gz
Wind_Speed
59 58 58 56 54 52 51 49 48 47 45 43 41 39 38 38 38 37 36 34 33 34 35 34 35 33 32 31 30 31 27 30 26 25 24 22 16 24 15 24 19 23 18 19 18 18 18 20 20 20 23 25 11 8
56 54 53 52 51 50 49 48 47 45 43 41 39 38 37 37 36 34 34 32 32 31 32 31 29 31 27 26 27 27 27 27 25 23 26 23 22 20 19 16 15 20 18 19 19 18 18 18 17 19 22 23 15 13
53 52 51 50 48 46 45 45 45 44 43 41 39 37 36 35 34 33 31 32 32 29 29 29 26 24 23 26 27 27 28 25 25 23 24 23 21 20 12 17 19 23 20 23 19 19 16 17 17 13 20 20 16 9
49 49 48 47 45 45 43 43 43 43 42 40 39 36 35 34 32 31 31 31 31 29 28 29 23 22 23 24 27 28 27 25 25 24 23 22 21 19 16 15 16 20 19 17 22 18 20 19 18 19 17 14 17 15
43 42 43 42 43 42 41 41 41 42 41 40 38 36 34 32 31 30 29 28 28 26 24 24 23 23 23 26 26 27 26 24 23 23 22 22 22 20 16 16 8 17 14 21 23 18 20 20 18 21 10 6 12 14
40 39 38 38 38 38 39 39 40 40 40 39 36 35 32 30 30 28 27 27 24 22 21 20 21 23 22 22 23 24 22 22 22 22 21 21 22 20 18 15 12 18 19 23 23 24 21 19 20 19 15 4 9 14
36 36 36 37 36 36 37 37 39 39 39 38 36 33 31 29 28 27 25 25 24 23 22 19 23 22 22 20 20 19 18 20 21 19 19 20 22 22 19 18 23 15 16 16 19 21 20 20 14 8 5 12 11 10
31 30 31 34 35 36 36 36 37 38 38 37 35 34 31 29 27 25 24 23 23 22 23 22 23 22 20 20 18 18 17 19 18 17 20 19 19 19 23 25 20 15 13 16 17 13 14 14 15 14 14 13 12 12
31 28 27 29 33 36 36 36 37 38 38 37 35 34 31 28 25 23 23 22 22 24 24 22 20 24 17 17 16 17 17 16 17 18 17 17 19 20 24 28 21 18 16 16 16 13 13 13 8 11 10 10 8 9
31 29 28 26 26 31 36 36 36 36 37 36 34 32 28 25 24 22 21 23 24 25 23 21 20 17 16 15 14 15 14 15 16 14 16 16 17 21 23 20 21 20 18 16 14 10 11 6 6 7 7 6 6 6
33 30 29 26 27 27 32 35 35 35 35 35 32 30 25 24 23 23 22 22 22 21 20 18 16 16 14 14 14 12 12 13 12 13 11 8 14 19 18 18 18 18 16 15 5 9 15 11 12 12 12 12 11 10
33 31 29 27 27 29 29 33 32 30 29 28 28 25 25 25 24 24 22 20 18 19 16 14 15 15 15 15 14 14 16 15 18 16 13 15 23 13 16 17 17 15 12 11 15 14 11 11 12 13 13 12 10 9
32 33 31 29 29 29 29 30 29 29 30 29 29 29 28 25 25 22 19 17 15 14 14 13 15 16 14 14 15 16 15 13 14 13 18 17 17 17 16 15 16 16 14 12 12 14 11 11 10 9 9 10 11 12
28 30 31 32 30 29 30 29 29 31 31 31 31 28 30 28 25 20 20 18 14 14 16 16 14 13 13 14 16 15 14 14 6 12 12 18 15 19 18 14 16 16 16 15 16 14 12 11 10 11 12 13 14 15
25 29 32 33 31 32 31 31 30 28 27 30 28 27 27 23 19 17 18 17 16 16 16 15 14 14 14 14 14 13 11 14 14 12 20 19 15 17 16 20 22 16 16 16 19 19 14 12 11 12 13 15 16 17
28 31 33 34 35 36 37 37 35 29 28 28 24 21 27 21 17 18 18 17 15 15 13 12 13 14 14 13 10 11 13 12 9 19 16 16 16 17 16 15 13 19 20 21 22 16 12 11 13 12 14 17 19 21
31 34 38 40 38 43 39 42 43 38 32 24 23 26 24 23 19 17 18 19 19 19 13 12 12 12 11 10 12 8 14 13 16 15 16 16 15 16 15 13 12 13 18 22 19 18 16 15 16 15 15 15 16 20
34 37 40 47 40 39 43 42 45 35 26 20 19 21 20 18 19 16 14 13 10 6 11 11 10 9 9 11 9 15 15 16 15 13 14 15 13 11 14 11 10 13 13 15 20 21 19 19 19 16 18 18 19 19
37 39 42 40 36 35 39 37 38 33 25 22 19 20 19 18 15 13 12 11 11 12 16 13 10 10 11 14 16 14 13 14 14 15 15 14 13 13 12 9 10 4 4 8 16 21 20 18 16 18 24 25 23 24
37 38 38 39 38 36 36 31 27 25 23 21 20 19 18 16 14 12 11 11 11 12 12 12 12 13 10 10 13 13 11 9 8 8 8 8 9 9 12 11 13 11 8 8 8 15 16 21 22 23 20 22 22 26
37 35 37 38 39 36 31 32 27 23 22 20 20 18 16 14 13 12 10 11 11 12 13 13 15 13 15 14 13 12 11 8 6 6 7 7 8 10 5 11 17 14 12 12 13 16 18 19 19 21 25 28 27 29
33 32 32 32 33 32 29 27 22 21 22 20 16 15 13 12 10 10 9 9 8 8 9 11 14 14 13 14 14 12 10 8 8 8 6 8 5 2 6 3 8 5 7 10 12 13 16 18 21 23 25 27 29 31
28 32 32 29 30 30 29 28 24 20 19 15 13 12 10 8 8 8 7 6 5 7 10 12 13 12 12 12 10 8 7 5 6 6 6 10 7 7 5 9 11 11 11 10 11 16 19 20 22 23 25 25 26 26
26 30 31 32 30 27 26 23 20 17 15 15 13 11 10 8 6 6 7 8 9 7 6 7 6 6 6 6 6 5 5 6 4 1 7 8 5 8 9 10 11 13 13 14 14 15 16 17 20 23 25 26 27 29
27 28 27 25 23 22 21 20 19 18 16 15 13 11 8 6 7 6 6 5 6 5 7 8 9 9 10 9 7 4 7 6 5 4 7 4 5 9 9 8 9 10 10 12 15 17 19 20 22 24 27 30 31 33
28 28 26 24 22 21 21 20 19 18 16 15 13 14 15 14 8 8 9 9 7 7 11 10 9 7 7 7 4 6 6 5 5 4 6 3 4 6 7 8 9 11 13 15 17 19 21 23 25 26 28 30 32 34
24 25 21 21 21 20 19 19 18 18 16 17 18 21 21 26 24 22 19 21 16 14 13 10 8 7 5 7 8 6 3 5 2 1 1 2 4 6 8 10 10 12 13 14 16 18 20 22 25 27 29 30 33 34
22 21 21 21 20 18 17 18 18 21 21 21 22 23 16 15 16 14 12 11 12 14 14 12 10 10 10 8 8 4 3 2 1 1 2 6 7 8 8 8 9 12 13 16 18 20 22 24 26 29 31 33 34 36
21 21 19 19 19 19 21 25 26 25 23 20 19 13 16 16 14 18 11 11 12 12 12 12 11 11 9 8 5 3 2 2 3 3 4 5 5 6 8 10 11 13 15 15 16 21 25 27 29 31 33 35 37 40
22 20 19 22 26 28 27 24 23 26 23 19 16 14 15 16 16 14 13 13 12 11 9 6 4 3 3 2 1 2 1 0 2 3 4 6 7 9 10 11 12 14 16 18 21 23 25 29 31 32 35 37 39 42
27 31 31 29 28 28 28 26 25 23 22 22 17 15 14 12 9 8 6 7 7 6 4 3 2 3 5 6 7 7 6 5 5 6 6 6 7 8 11 13 15 16 19 21 23 24 26 28 31 34 36 38 40 43
32 30 30 28 26 23 21 26 21 15 16 15 12 10 8 6 5 5 5 5 7 10 11 11 11 11 10 9 7 7 6 5 4 5 7 9 11 12 13 15 17 20 21 23 24 25 27 30 33 35 38 40 41 42
27 24 23 21 19 18 20 20 10 8 10 9 6 4 2 2 1 4 7 10 11 11 10 10 10 9 7 6 5 5 6 7 8 9 10 11 12 15 17 18 19 20 22 24 26 27 29 31 34 37 39 41 42 43

GFSWCAN_500_spd_096.txt.gz
Wind_Speed
66 64 62 60 59 58 56 54 53 50 47 45 44 43 43 44 43 43 42 42 42 41 39 40 39 37 36 36 33 34 32 34 31 29 26 25 25 21 28 30 25 21 19 19 25 25 20 23 24 20 19 17 21 21
59 58 56 54 52 51 50 48 46 45 44 42 42 41 42 43 43 42 43 42 41 39 37 35 35 32 32 29 31 30 30 30 30 27 28 26 22 24 29 24 26 28 24 23 25 22 20 22 21 19 19 21 21 17
54 52 50 49 47 46 46 44 43 42 41 41 41 41 41 42 41 42 41 38 38 37 32 33 30 30 26 25 23 23 26 27 27 25 26 23 27 26 17 14 23 23 16 16 21 26 23 21 22 17 16 19 19 10
51 49 47 45 44 44 43 42 40 38 38 38 39 39 40 40 40 38 37 36 35 35 31 32 29 25 24 22 22 24 24 25 27 28 27 28 26 23 22 25 20 15 26 19 23 25 20 22 20 19 19 22 19 15
48 46 44 43 41 40 40 41 40 38 38 38 39 41 41 40 38 36 35 30 33 32 29 28 24 25 20 20 23 25 26 26 28 28 27 25 23 25 26 25 18 27 19 24 16 27 19 21 19 21 22 22 15 14
45 43 41 39 38 36 37 38 38 37 37 38 38 40 40 39 37 34 36 35 31 27 26 25 27 18 21 20 23 25 27 26 26 26 24 22 23 24 22 22 26 21 10 6 19 19 20 22 21 19 19 21 24 11
42 40 39 38 36 35 36 36 36 36 35 35 36 38 36 36 34 32 31 27 28 26 24 23 23 19 20 22 24 24 22 20 20 21 21 21 21 21 22 26 24 23 26 25 25 21 19 20 17 14 14 14 11 16
37 37 36 36 36 35 35 34 34 34 34 34 35 35 35 32 31 30 28 24 25 24 23 22 24 22 20 22 20 20 19 17 16 16 17 17 18 19 22 23 26 26 24 21 23 20 17 19 15 13 15 21 14 10
32 33 33 33 34 34 34 33 33 33 33 33 34 33 32 30 27 26 24 22 23 22 21 21 25 28 19 17 14 14 15 13 14 13 15 17 17 20 19 22 25 24 23 21 22 19 13 17 16 16 17 8 6 11
30 31 28 28 30 32 34 33 33 32 31 32 32 32 29 25 25 24 23 22 21 21 22 24 25 20 20 14 11 11 12 12 13 13 17 18 17 20 22 20 14 17 16 19 20 16 14 15 17 9 16 5 8 12
30 31 28 26 25 28 31 32 31 31 31 31 30 27 26 25 24 23 22 20 20 22 22 21 19 17 16 14 11 12 14 16 15 14 17 11 15 19 16 18 14 14 13 17 25 23 20 16 6 11 10 10 6 12
32 31 29 27 25 24 26 30 29 26 25 25 25 25 24 24 23 22 20 20 19 17 16 15 16 16 15 12 11 7 11 14 16 17 13 20 17 23 20 15 13 19 20 21 19 21 12 22 20 14 20 7 10 14
33 32 29 28 25 23 23 26 28 27 26 25 24 20 23 24 22 19 19 18 14 15 14 14 14 14 13 13 13 17 19 12 13 15 19 24 15 16 11 10 11 10 14 10 11 8 8 7 7 14 16 15 17 16
31 32 29 27 25 24 24 26 28 25 25 25 29 31 26 22 20 18 15 15 15 12 12 14 15 13 13 12 13 14 16 13 16 15 17 8 11 12 12 17 14 13 17 18 16 16 10 11 13 12 13 15 17 16
29 31 30 27 25 26 26 28 31 34 34 30 29 28 24 22 20 17 16 15 12 10 11 12 12 12 11 12 13 13 11 13 15 16 13 9 11 14 10 11 11 14 17 21 14 14 16 14 13 13 12 13 14 17
28 30 29 28 28 28 30 32 31 30 27 30 24 24 21 21 17 15 15 14 14 12 13 14 12 10 11 10 8 11 14 14 15 10 3 7 11 12 13 11 13 13 15 14 14 11 13 13 13 13 13 12 14 18
27 30 32 33 32 33 34 35 33 33 25 25 22 17 17 20 17 15 13 15 16 11 19 8 11 11 11 11 12 12 9 11 15 14 15 11 11 12 14 12 13 13 13 9 10 12 18 21 19 14 15 15 17 16
32 35 36 36 37 35 41 38 31 26 23 19 21 21 18 21 17 12 12 15 20 14 17 14 12 10 10 11 7 13 12 12 12 15 12 14 14 13 11 12 12 11 10 13 14 13 13 12 20 20 18 17 20 19
36 38 41 43 32 36 33 34 30 25 20 16 23 20 17 17 16 13 13 10 6 10 22 14 12 12 11 13 13 10 6 9 13 15 17 17 16 14 12 12 11 10 7 7 8 11 9 17 17 17 19 21 21 26
37 36 39 39 36 36 37 32 28 22 15 16 28 25 18 15 14 13 13 16 6 9 9 11 10 11 12 10 16 14 13 11 12 13 11 10 10 9 8 9 10 11 12 9 13 14 14 10 12 23 20 24 26 26
40 44 32 41 35 33 31 32 26 23 19 18 19 20 19 16 13 12 11 10 10 8 7 10 10 12 14 15 10 9 10 12 11 9 9 9 9 9 9 9 11 11 9 10 11 13 10 12 18 21 23 24 25 29
32 36 34 35 33 35 32 26 25 22 18 17 18 16 14 13 12 10 9 9 10 9 13 10 14 14 11 12 14 15 12 12 10 9 9 9 7 3 5 5 6 7 9 11 12 15 16 14 15 19 22 25 28 29
35 37 36 31 26 28 29 24 21 20 20 17 15 14 12 11 10 10 10 9 9 10 10 6 11 11 11 13 13 13 13 11 9 7 9 8 9 7 8 7 5 10 8 12 12 13 15 16 17 20 23 25 26 28
30 30 31 27 26 27 23 21 22 21 17 15 14 12 11 11 10 9 6 5 7 8 5 6 5 7 8 7 8 9 7 4 5 6 7 7 5 3 5 11 11 9 10 11 12 13 14 16 18 20 22 25 28 30
29 29 28 24 24 23 23 20 19 17 16 14 13 12 9 6 3 3 3 6 5 6 7 7 6 6 8 7 6 2 2 6 6 4 4 7 8 10 8 8 7 9 9 11 12 14 16 17 19 22 22 24 27 30
29 28 25 26 25 22 21 19 17 17 16 13 10 8 9 8 7 5 3 4 8 8 6 7 7 7 7 7 5 6 4 6 5 5 5 5 5 5 6 8 10 11 12 13 13 15 17 17 19 21 22 26 29 31
27 26 25 23 22 20 18 18 17 15 14 12 15 18 16 17 15 13 12 13 13 11 7 5 5 6 5 5 6 5 1 5 2 2 2 4 5 7 9 11 12 12 12 12 12 13 15 17 21 25 28 30 33 35
21 19 21 20 17 17 16 16 14 12 13 13 22 19 15 12 12 13 18 17 16 14 13 12 11 6 5 6 7 4 3 5 1 2 5 7 8 9 10 9 9 9 11 15 16 17 19 21 24 27 29 30 33 37
18 20 17 17 18 17 16 16 16 16 19 17 19 18 16 16 19 17 17 15 14 14 13 12 10 9 8 6 3 1 3 4 5 6 6 7 7 8 9 10 10 10 11 12 15 20 21 23 25 28 31 33 37 41
17 17 17 17 19 20 21 20 17 18 20 21 18 17 14 16 18 16 14 12 10 7 5 5 4 5 3 2 2 3 3 3 3 3 5 6 6 6 6 9 11 14 17 19 21 22 23 26 28 30 33 35 39 42
20 22 22 22 20 20 22 19 18 18 18 17 15 12 9 9 10 9 8 6 4 2 1 2 1 1 2 3 3 2 2 2 3 3 3 5 7 9 12 15 17 19 21 22 24 26 27 29 31 33 34 37 39 42
26 24 23 26 27 25 22 22 20 16 12 12 11 9 7 5 6 5 5 7 8 8 10 10 9 8 6 5 3 2 1 2 4 5 7 9 12 15 18 19 20 22 24 25 26 27 28 30 33 33 34 37 39 41
27 23 21 19 20 19 17 14 12 10 7 5 3 1 1 1 5 9 10 10 10 10 9 8 7 5 4 4 4 5 5 6 7 10 12 15 17 18 19 21 22 23 24 25 27 29 29 31 33 33 34 34 37 40

GFSWCAN_500_spd_102.txt.gz
Wind_Speed
56 56 57 57 62 66 67 68 67 63 61 58 55 54 52 50 48 47 48 45 44 41 39 43 42 39 40 41 43 44 43 42 41 42 41 31 28 25 24 24 27 25 27 31 33 34 34 29 26 24 14 18 20 15
50 50 50 49 49 52 55 57 59 59 58 56 53 51 50 49 48 47 48 45 43 41 40 42 41 41 42 44 44 40 38 36 37 34 30 25 21 20 20 26 29 31 29 31 31 30 24 19 24 25 23 20 19 17
49 49 49 48 47 46 46 49 50 50 52 52 51 50 48 47 46 46 47 46 43 40 39 41 40 44 41 39 38 36 32 29 29 27 22 21 23 22 23 27 27 31 23 13 23 25 23 24 27 17 12 15 13 15
51 51 49 47 45 44 43 42 45 46 48 48 48 47 46 45 45 46 46 44 43 41 40 41 39 38 35 34 35 30 26 26 24 22 23 23 24 25 26 26 28 27 31 33 29 26 28 20 24 25 21 17 16 14
48 46 45 43 43 41 42 40 40 43 45 46 45 44 44 43 44 44 44 43 41 40 37 34 36 32 31 31 27 26 25 24 24 23 25 25 24 26 27 28 27 30 27 30 27 19 17 16 10 15 18 17 17 14
42 41 41 40 40 39 39 38 38 39 40 41 43 42 41 41 40 41 41 41 38 35 33 31 32 29 27 25 25 23 23 24 25 25 26 25 23 30 29 28 23 33 30 29 25 11 13 12 18 20 18 15 17 16
37 37 37 36 35 35 37 37 36 36 38 38 38 39 38 38 37 36 35 32 31 31 30 26 25 27 23 20 20 20 21 23 24 24 21 22 23 30 26 19 18 23 29 29 26 19 14 17 19 20 19 15 12 7
33 31 31 32 32 32 35 36 34 33 34 35 35 35 34 33 32 31 29 27 26 25 25 24 24 17 18 19 22 22 22 21 20 19 20 21 23 24 16 14 21 25 28 28 28 18 19 17 19 18 13 10 14 13
28 24 23 21 25 30 33 32 31 29 30 30 30 30 30 28 26 24 23 24 24 24 23 21 22 20 18 22 20 19 20 18 18 18 19 17 17 14 16 20 19 21 25 23 23 22 23 18 18 18 13 12 10 14
20 18 17 16 21 27 31 28 26 25 25 25 25 24 22 25 24 23 23 23 22 21 19 18 20 17 19 17 15 16 16 16 16 16 11 11 14 20 17 17 16 18 21 19 21 20 19 17 16 21 13 15 13 14
14 13 16 17 19 26 27 24 23 23 23 22 21 21 22 22 22 22 22 21 19 17 18 21 18 19 19 15 12 10 12 13 14 12 10 11 15 18 14 15 15 15 16 18 20 19 18 15 13 15 11 19 18 23
12 14 17 20 22 25 23 22 21 21 22 23 23 22 24 24 23 23 21 19 17 17 16 16 16 16 14 11 10 9 11 12 13 10 12 9 16 19 9 14 17 17 20 24 21 23 19 16 13 15 12 8 8 11
13 16 19 23 23 23 23 25 27 27 27 28 27 20 25 24 21 19 18 16 15 13 12 12 13 14 11 9 12 10 10 4 13 8 7 6 11 17 14 14 15 19 15 24 20 16 19 18 14 15 10 9 12 10
16 23 22 22 23 27 30 31 30 30 30 30 30 26 22 20 18 19 19 14 13 14 14 11 12 11 11 13 11 9 8 9 5 3 7 6 9 7 16 16 4 7 6 3 6 3 3 5 11 7 15 15 18 15
28 25 24 24 28 32 33 32 31 28 27 28 28 26 25 23 19 18 19 14 13 13 11 14 13 13 12 10 8 9 8 8 6 5 7 6 8 6 5 6 5 3 4 3 3 3 2 6 10 12 7 10 14 12
27 25 25 26 30 34 34 33 32 31 31 29 29 27 24 22 20 17 17 15 15 14 15 14 11 11 12 10 10 9 6 3 3 8 2 2 3 4 4 5 5 6 4 2 2 1 2 5 8 10 11 12 12 12
28 27 27 28 32 35 34 36 38 37 28 30 28 26 23 21 21 19 18 16 18 16 15 16 15 16 12 12 11 5 6 4 2 1 1 3 3 4 5 5 6 7 6 7 6 6 10 8 12 13 14 9 14 11
28 27 28 29 34 36 36 36 34 33 29 30 28 25 22 21 19 16 14 13 14 13 12 12 13 13 9 10 11 6 6 5 3 2 1 4 6 8 7 9 9 8 8 10 9 10 11 11 12 11 16 18 15 14
28 28 29 30 32 31 31 31 30 25 22 21 22 20 21 20 17 15 14 15 15 13 12 11 15 8 6 6 2 5 5 4 1 2 2 5 7 7 8 10 10 8 7 7 8 10 9 8 7 12 16 17 19 19
29 31 33 34 35 33 29 24 22 19 17 22 16 17 19 15 16 15 15 15 12 10 13 14 9 9 6 8 5 4 5 2 3 3 4 5 6 7 7 9 8 7 7 7 9 7 7 6 5 4 18 15 10 9
31 33 35 33 33 37 35 25 22 20 17 15 21 21 15 14 14 10 10 15 25 20 15 21 16 7 7 8 6 4 3 5 4 1 1 3 5 8 7 6 9 12 2 3 2 4 5 6 7 9 12 15 15 14
30 30 30 32 27 28 18 11 18 25 22 28 24 18 18 18 15 12 11 15 14 7 9 9 8 8 5 4 3 5 7 8 5 4 3 6 7 8 4 7 6 10 10 5 6 7 7 8 8 10 11 12 13 15
32 34 29 26 23 18 18 26 25 20 20 22 22 19 16 13 14 14 14 12 11 9 8 5 3 3 4 3 4 5 5 4 5 6 4 5 7 4 1 3 4 5 6 7 10 11 9 11 11 12 14 16 16 17
31 28 26 25 23 23 24 23 22 19 17 18 15 12 11 10 10 12 11 3 6 6 5 2 1 0 2 3 4 3 1 3 3 3 2 1 3 3 3 4 4 6 8 7 9 9 10 11 12 13 14 15 17 17
29 28 25 22 20 21 22 22 20 19 18 16 14 11 11 11 11 10 8 5 4 3 1 3 4 5 4 3 1 2 3 3 7 10 7 4 1 3 5 5 6 7 9 9 10 10 11 11 10 9 11 15 17 19
25 24 21 20 19 20 20 18 16 15 14 13 12 11 9 9 9 9 8 8 5 3 4 4 3 5 4 4 8 7 6 5 4 3 1 1 2 5 8 9 9 10 11 11 11 12 13 14 16 17 19 21 23 26
24 24 22 21 18 16 17 16 15 12 9 9 11 12 11 9 9 10 10 10 10 11 10 8 8 6 5 10 10 6 6 4 3 2 2 2 3 6 8 8 8 9 10 10 10 13 15 17 19 21 23 25 26 29
20 22 19 18 17 16 15 13 11 11 15 16 15 10 12 20 17 13 9 9 9 10 12 11 11 8 9 9 7 7 4 3 2 2 3 5 6 6 6 8 10 11 13 14 15 17 19 21 23 24 25 25 26 29
20 20 20 19 18 17 16 16 16 17 18 18 17 22 26 20 16 16 15 14 13 10 10 9 8 9 9 6 3 2 4 6 7 8 7 6 7 8 8 8 9 11 14 17 17 17 19 21 23 25 27 29 29 29
22 20 18 18 19 19 19 19 20 21 19 18 19 17 16 15 14 13 12 10 9 8 8 8 8 6 3 5 6 7 7 8 8 9 8 7 8 10 12 13 14 15 17 19 19 20 22 22 24 26 28 29 30 30
22 23 23 24 24 24 25 26 21 21 17 17 15 13 11 9 8 7 7 6 6 7 8 9 11 10 8 8 9 10 10 9 8 8 9 11 12 13 14 16 17 17 18 20 22 22 24 26 27 29 30 30 29 28
26 23 21 21 21 22 18 17 15 13 12 10 8 9 10 9 10 10 11 13 14 13 13 12 12 11 10 10 9 7 6 7 8 9 11 13 14 16 18 18 18 18 19 20 22 24 25 26 28 29 30 29 28 28
24 23 22 18 16 16 14 11 8 6 4 3 4 7 10 11 12 12 12 13 12 11 11 11 10 9 8 7 7 8 8 8 10 13 14 15 15 15 16 18 19 21 22 24 24 24 25 27 29 31 30 29 27 27

GFSWCAN_500_spd_105.txt.gz
Wind_Speed
47 47 47 48 48 48 50 52 54 56 57 61 63 64 63 60 58 57 57 55 53 51 48 48 48 45 43 44 43 43 45 44 43 45 46 44 41 34 36 29 27 25 27 29 29 29 31 31 27 23 24 24 24 22
42 43 44 44 44 46 47 48 48 49 51 54 60 62 62 61 59 57 57 55 53 50 48 49 47 44 44 46 46 43 42 41 44 44 43 41 35 29 28 25 28 28 30 33 34 32 34 24 17 20 22 23 20 26
45 46 46 47 48 48 49 50 49 48 46 46 51 56 57 59 58 56 56 54 50 48 47 46 43 46 45 44 44 42 39 42 45 41 36 32 28 25 27 27 28 31 32 32 29 34 22 19 19 19 14 13 16 17
46 47 49 50 50 48 48 49 48 46 44 42 44 50 54 55 55 54 54 53 50 47 45 44 45 45 44 43 41 39 39 39 37 36 33 27 24 26 28 29 30 30 30 30 29 27 22 17 19 15 19 16 19 18
51 52 52 51 48 47 46 45 44 42 40 39 41 45 49 51 52 52 51 50 48 47 44 43 44 42 42 40 39 37 33 32 30 29 26 24 23 27 30 31 25 26 30 26 27 26 21 18 20 14 12 14 15 15
51 50 49 48 46 45 44 42 41 38 37 37 38 41 42 45 47 47 46 46 45 45 44 39 39 37 36 34 32 30 29 26 27 25 24 24 26 29 33 27 18 24 28 28 30 26 23 14 22 19 18 18 13 13
44 43 42 41 39 40 38 38 36 34 34 34 35 35 35 37 40 40 39 39 39 37 36 33 32 33 29 25 24 24 23 24 24 24 24 24 27 34 29 19 17 30 30 30 26 23 19 18 22 21 21 19 13 15
39 38 36 36 36 35 33 32 31 30 31 31 29 29 29 30 33 32 33 31 29 30 30 27 27 26 23 21 23 22 23 23 24 24 23 26 25 27 22 20 23 25 29 27 26 22 20 16 19 20 20 18 13 14
34 34 35 31 29 28 29 28 27 27 29 28 25 24 23 24 25 26 27 25 27 28 27 23 22 21 18 16 20 23 23 22 22 21 21 20 23 22 20 18 20 19 21 20 20 18 17 16 14 17 17 19 17 13
28 25 23 22 21 21 18 21 24 25 24 21 20 20 20 22 21 22 25 26 25 24 22 23 23 23 21 21 20 21 20 20 18 19 18 16 18 17 16 13 14 14 14 15 17 17 14 15 16 15 16 19 18 19
16 17 17 16 14 12 15 18 21 21 18 17 18 19 21 22 23 25 25 22 20 19 20 23 20 21 23 22 22 19 15 14 15 15 15 15 16 14 14 13 13 16 17 17 16 13 14 18 14 11 17 20 15 18
14 13 12 13 12 14 14 19 20 19 20 21 22 23 24 24 25 23 21 20 18 20 21 21 21 21 22 23 16 14 15 13 12 14 13 13 12 10 12 17 15 12 15 19 21 19 19 16 13 13 15 15 12 16
9 11 14 14 16 15 24 24 25 28 29 27 20 18 23 24 23 21 18 17 16 18 18 18 19 19 17 17 16 16 11 9 8 13 15 14 11 9 12 9 11 15 20 21 20 21 17 15 17 14 14 16 12 10
12 15 17 18 18 28 28 30 32 31 33 27 28 22 23 20 19 21 20 22 21 20 17 17 17 18 18 16 17 14 10 13 9 11 14 11 6 7 9 5 7 2 5 2 9 9 1 4 8 16 14 13 11 12
15 17 20 24 29 29 31 33 34 35 35 29 26 25 25 23 22 25 21 20 20 17 15 15 17 18 18 18 15 12 10 9 8 7 8 6 3 3 4 7 7 4 2 1 3 5 4 4 1 3 11 15 19 19
24 24 25 27 28 31 34 33 34 31 32 30 25 26 24 22 21 20 16 18 19 16 13 13 15 15 14 14 12 10 8 1 1 1 4 3 2 2 3 4 3 1 2 4 4 5 4 3 5 5 4 7 8 7
23 22 27 31 34 34 34 33 31 31 30 28 26 23 22 20 22 23 20 19 17 15 15 14 15 14 13 10 10 10 7 7 2 4 6 3 2 3 3 3 4 2 4 7 9 8 7 7 7 8 10 9 12 14
24 27 34 35 35 35 33 31 32 30 29 32 25 21 24 19 18 17 16 15 15 16 15 16 11 12 12 14 15 11 9 10 8 5 2 1 4 6 6 5 6 6 5 6 9 8 8 9 12 12 10 7 10 17
27 32 34 33 31 31 34 35 30 29 29 24 24 25 17 19 15 14 15 17 16 12 14 13 13 11 11 10 10 12 10 10 5 3 1 2 3 3 3 3 4 4 5 6 5 5 8 8 7 10 12 13 10 17
31 34 33 32 32 30 29 27 27 27 24 22 21 21 22 20 17 14 14 14 11 12 6 7 14 12 14 13 9 10 7 4 2 3 2 0 0 2 1 3 4 4 2 3 5 4 3 5 5 8 8 13 16 12
36 35 36 36 35 31 26 23 21 22 20 17 19 17 16 17 12 10 16 13 14 13 14 15 14 11 10 9 7 5 4 3 2 2 1 1 3 5 4 6 6 10 7 3 1 3 1 2 5 7 8 9 11 13
35 37 39 38 35 29 20 20 21 20 21 18 17 17 18 17 22 25 23 21 21 25 20 15 9 5 7 6 2 3 3 5 2 0 1 3 4 4 5 3 5 6 5 4 1 4 7 7 8 8 9 10 12 13
31 32 29 25 20 26 28 23 23 29 25 21 18 17 16 19 16 16 22 22 19 14 10 8 7 5 3 2 2 3 2 3 4 2 3 1 4 6 4 2 4 6 5 6 7 8 8 7 8 9 11 11 11 13
29 27 23 23 31 29 36 34 27 27 20 19 20 16 15 16 16 16 15 15 12 10 8 6 4 2 2 3 2 1 1 2 1 1 2 3 7 4 2 2 4 5 7 8 8 8 8 9 10 11 12 13 16 18
28 27 27 28 25 21 20 21 22 22 17 17 16 13 13 12 11 10 12 13 13 9 6 7 5 5 7 5 4 5 6 6 6 6 7 7 4 1 3 4 5 7 7 7 7 6 6 7 9 12 15 17 19 21
25 26 25 26 23 22 21 19 17 15 12 12 12 12 12 12 11 9 10 9 6 7 8 8 8 6 8 8 9 8 7 6 3 2 2 2 1 2 4 6 8 9 8 8 9 10 12 14 15 17 19 21 23 25
25 26 23 22 22 20 17 17 16 14 12 11 8 8 9 11 12 11 9 8 9 9 11 11 8 8 11 9 10 7 7 5 3 3 5 6 6 6 6 5 4 6 9 11 13 15 16 17 19 20 22 24 26 28
23 23 20 19 19 16 15 14 15 16 14 16 17 21 19 18 21 20 12 11 11 12 12 10 8 7 9 10 8 6 6 3 3 4 1 2 3 4 6 8 10 12 13 14 16 18 19 21 22 22 23 26 28 29
19 20 20 19 17 18 21 21 19 18 20 25 21 22 22 16 15 15 12 11 9 8 6 4 6 8 5 4 4 5 6 4 4 6 7 7 7 7 8 10 11 14 16 17 18 20 21 22 23 24 25 27 28 29
20 19 18 19 20 20 20 18 21 22 20 19 14 15 14 14 13 12 14 13 11 8 6 6 6 5 5 6 6 6 6 7 6 6 6 7 9 9 11 13 15 16 17 17 16 17 18 20 23 25 27 29 31 31
21 21 21 22 21 24 24 22 20 18 17 15 13 11 9 9 8 6 5 6 7 6 5 5 8 9 8 7 6 6 6 6 6 8 9 11 12 13 14 13 13 15 18 20 22 24 24 25 25 26 29 30 31 30
22 22 23 24 20 16 16 14 13 12 10 11 10 10 11 11 12 13 14 14 13 12 11 10 8 8 8 8 7 7 7 8 8 10 12 13 13 11 10 11 14 17 20 24 26 26 26 25 25 26 28 29 30 29
24 23 20 16 13 11 9 7 5 3 4 6 10 14 14 14 14 13 11 11 11 11 11 11 10 8 7 7 7 7 7 9 10 11 12 10 10 12 13 14 17 21 25 27 27 25 24 24 25 27 28 30 31 31

GFSWCAN_500_spd_111.txt.gz
Wind_Speed
48 47 47 47 46 46 45 45 45 44 45 46 47 48 49 49 49 49 50 51 52 52 52 55 55 53 51 51 50 48 46 46 46 44 43 44 43 40 40 39 38 38 38 36 34 34 34 33 32 31 30 31 30 28
49 47 46 45 44 42 41 42 41 41 42 42 42 42 43 43 44 46 48 50 52 53 53 56 56 56 55 53 52 50 49 47 45 44 44 44 43 41 37 36 35 38 38 33 33 28 29 29 28 28 25 21 21 24
47 46 44 43 41 39 38 39 39 39 40 40 40 39 38 39 39 39 41 44 49 53 54 56 57 59 59 57 55 53 50 44 44 44 44 44 42 38 35 35 34 34 32 32 33 29 26 24 24 21 22 23 27 26
47 45 44 42 41 39 39 39 40 40 40 40 40 39 39 40 40 40 42 43 44 47 51 52 57 58 59 57 54 52 45 45 44 45 43 41 37 36 35 35 35 28 29 29 32 24 26 19 20 16 19 21 23 22
45 44 43 42 41 40 40 41 42 43 43 43 42 41 42 43 42 41 42 44 45 46 46 48 51 52 55 55 52 48 42 41 44 44 43 37 34 35 37 35 25 25 27 30 27 25 27 18 20 18 21 24 28 25
41 40 40 41 41 41 41 42 43 44 45 46 46 47 47 46 45 45 44 44 44 44 45 44 41 41 47 47 43 42 39 40 42 40 35 32 28 35 35 25 19 24 30 31 25 27 23 17 19 21 22 24 28 29
36 37 37 37 37 37 37 39 41 43 44 45 45 42 40 39 39 38 38 37 36 36 35 32 26 32 33 31 33 34 34 36 36 34 30 27 27 30 25 17 24 28 28 26 26 29 20 22 23 21 19 24 26 27
32 31 31 32 33 35 37 38 39 38 37 35 36 35 33 32 31 29 29 27 25 23 22 20 23 24 23 26 25 27 30 29 29 27 25 26 24 22 17 21 22 22 23 26 28 28 22 23 24 22 23 24 24 23
27 29 30 32 33 34 34 34 33 32 31 29 28 29 28 25 22 22 19 19 19 20 18 19 22 23 23 24 23 22 22 23 23 23 23 23 21 18 21 19 19 20 23 24 23 20 20 21 22 23 24 22 22 20
25 26 25 24 24 25 27 28 28 26 26 24 23 20 18 17 17 17 18 20 20 16 14 20 23 24 22 24 24 24 23 23 22 21 21 19 15 19 17 16 17 19 20 17 17 17 17 17 18 17 18 17 17 15
17 18 18 18 19 18 19 19 19 19 19 19 18 16 18 18 18 20 21 17 10 13 15 21 23 21 23 24 24 22 19 18 17 18 17 13 15 17 15 16 16 15 15 15 16 18 18 19 20 18 17 14 13 13
14 13 13 13 13 12 13 13 14 15 15 19 21 20 19 18 19 20 22 15 20 17 17 21 23 22 23 22 19 17 16 16 15 15 14 12 16 14 14 14 14 16 17 19 20 21 23 22 19 17 15 13 13 15
12 11 11 10 9 10 11 14 19 23 22 21 20 19 19 17 14 17 18 18 21 17 19 22 25 24 23 23 19 18 14 13 12 11 10 13 13 13 14 14 15 17 17 16 18 21 24 24 20 18 17 17 15 14
10 10 9 12 15 19 22 22 21 23 25 23 16 13 20 10 10 15 16 15 14 16 16 18 21 23 20 20 20 14 14 12 10 9 9 9 12 13 15 15 18 13 13 12 7 4 4 10 17 18 16 17 16 17
11 13 16 19 19 19 22 27 33 30 22 17 11 11 15 10 13 15 17 18 18 16 16 17 17 20 23 23 16 17 12 9 8 11 9 8 10 10 9 4 7 10 9 7 3 1 6 4 6 8 6 4 11 9
17 19 20 21 24 31 39 33 24 20 18 15 18 19 18 18 19 21 22 23 20 18 18 17 19 23 25 18 17 11 10 7 7 8 8 7 6 8 14 12 10 8 6 5 4 3 2 2 5 5 4 2 3 9
21 21 25 30 38 38 32 27 25 21 18 18 21 21 21 21 22 23 25 26 21 15 18 20 20 19 17 15 14 13 10 6 6 8 12 8 5 6 5 5 4 3 2 4 4 4 3 1 2 6 7 3 4 6
25 29 31 31 31 32 27 20 22 22 24 24 21 20 14 20 20 19 19 24 21 14 16 16 16 14 13 14 13 12 9 6 7 12 9 6 3 3 3 4 3 4 4 4 4 5 5 6 6 8 10 11 11 11
29 29 31 30 29 27 22 22 24 25 22 18 25 21 18 20 19 19 27 18 15 13 12 15 17 17 16 15 14 9 8 4 8 8 6 5 4 4 2 2 1 1 2 3 4 4 6 7 9 8 8 11 12 10
32 32 31 29 27 25 25 24 23 19 19 11 11 19 17 15 25 19 18 17 13 10 11 14 14 17 18 13 8 12 10 8 6 5 5 4 4 3 2 2 4 4 4 2 2 4 4 4 6 6 7 8 9 11
33 32 31 31 29 25 23 18 17 19 16 20 31 27 22 24 28 23 17 14 12 10 14 17 14 13 15 17 16 11 7 4 4 4 4 4 1 2 3 2 3 2 2 3 1 1 2 2 3 4 5 5 6 8
35 32 30 29 26 22 18 18 17 18 21 22 21 21 20 21 21 20 18 18 21 18 15 10 19 15 15 14 13 9 6 4 3 3 3 1 1 2 1 1 3 2 3 2 3 5 7 8 9 9 9 9 10 10
32 27 24 23 20 18 18 16 17 22 24 24 21 17 17 17 17 17 21 23 20 17 16 11 10 10 10 8 6 4 3 5 4 3 2 2 1 3 1 2 3 5 5 5 6 6 7 7 7 7 7 7 9 11
23 23 19 22 23 26 24 25 24 23 22 21 23 29 23 20 21 21 18 15 11 9 7 7 6 5 4 4 3 3 4 6 6 4 3 4 4 3 2 2 3 5 7 8 6 4 4 4 5 7 10 12 14 17
37 29 26 25 21 22 20 24 23 23 20 21 24 26 24 21 18 16 11 10 9 8 7 6 5 5 5 5 5 7 8 7 6 5 5 7 2 1 2 3 4 5 5 4 4 6 9 11 13 14 15 17 18 19
27 24 25 26 22 19 19 19 18 19 23 26 22 16 15 16 13 10 10 9 6 6 5 6 8 8 8 8 8 10 9 8 6 5 4 2 1 1 3 3 1 1 4 7 9 11 12 13 15 16 17 18 18 20
27 25 21 20 18 18 17 16 15 16 15 15 15 16 14 12 10 8 7 8 10 8 6 12 13 14 14 11 10 8 6 5 4 3 2 2 3 3 3 3 4 6 8 10 12 13 14 15 15 17 18 19 20 20
22 20 19 18 17 16 15 13 13 15 16 15 15 14 14 12 13 13 13 12 11 9 12 13 9 7 8 7 6 5 4 4 4 5 5 5 3 4 5 6 8 10 10 10 11 13 14 15 17 18 19 19 19 20
18 17 16 17 17 16 15 14 14 15 16 15 14 15 15 15 12 12 7 9 9 8 9 9 9 7 5 4 6 7 6 6 5 3 4 6 7 8 10 11 10 7 7 9 14 17 18 19 19 18 19 19 20 21
21 20 20 21 20 19 19 18 21 22 22 19 16 13 8 5 7 7 7 6 7 8 7 6 4 4 4 5 5 5 4 2 3 5 6 9 10 10 9 8 8 8 10 14 18 19 19 19 20 20 20 20 22 24
20 21 21 21 17 17 18 16 14 14 15 15 11 9 8 8 8 8 9 8 5 4 5 7 7 6 5 4 3 1 3 4 5 6 8 8 8 7 8 9 10 12 15 17 19 19 20 20 21 22 22 23 25 27
17 17 17 16 13 12 11 11 10 8 8 8 8 7 7 8 8 8 9 10 9 8 7 6 4 3 2 3 3 5 6 8 9 9 9 8 8 9 10 12 13 15 17 18 19 20 21 22 22 23 25 25 26 27
12 12 11 8 7 5 4 4 6 8 10 10 10 10 11 11 10 9 9 9 8 7 5 3 2 2 3 5 6 7 9 9 8 8 8 8 9 11 13 14 16 18 19 20 21 22 22 23 24 24 24 26 28 29

GFSWCAN_500_spd_114.txt.gz
Wind_Speed
45 44 43 42 41 41 41 40 41 40 41 41 40 40 40 40 41 43 45 45 47 48 49 51 52 52 54 54 53 54 50 49 50 48 46 44 45 45 44 40 38 38 38 37 33 31 29 34 27 28 28 28 30 31
46 45 44 43 43 42 41 40 40 39 39 39 39 39 39 41 42 44 45 46 47 48 49 51 52 54 55 55 56 56 55 53 50 47 46 45 44 45 42 39 39 37 38 34 32 31 30 26 28 29 27 28 30 30
47 46 45 45 44 42 42 41 40 39 39 38 37 38 39 40 41 42 42 44 45 46 47 48 50 53 54 55 58 58 58 57 52 50 48 46 46 44 42 37 39 38 35 34 32 29 26 29 28 26 25 25 27 27
47 46 46 45 44 43 42 41 40 39 39 38 37 38 39 41 41 41 40 40 39 41 42 43 45 48 52 55 57 58 57 56 55 52 50 48 47 45 39 39 39 33 32 31 33 25 29 25 25 25 23 23 25 25
45 45 45 44 44 43 43 42 41 40 40 39 39 40 41 42 42 40 38 39 40 41 41 39 41 45 46 50 53 54 54 54 53 52 51 49 46 44 36 41 34 27 30 33 28 26 30 20 24 25 20 24 25 27
43 41 40 40 40 40 41 41 40 39 39 39 40 41 42 42 41 41 42 43 44 45 45 45 47 50 53 49 48 46 45 46 48 48 47 46 42 36 40 39 22 28 32 32 27 29 25 19 22 24 22 25 26 27
37 36 35 34 34 35 36 36 37 37 38 38 40 40 40 40 39 40 42 41 43 44 45 43 43 44 46 44 38 34 32 35 38 40 42 39 35 35 37 26 24 31 30 28 27 26 22 22 22 25 27 27 26 27
32 32 32 31 31 31 32 32 32 33 33 34 35 36 37 37 36 35 36 37 37 37 37 34 31 31 28 25 24 26 30 33 33 33 34 32 33 32 31 22 30 27 27 27 26 23 21 24 23 24 24 24 26 28
26 26 27 27 27 28 28 29 30 31 32 33 33 32 29 29 29 29 29 31 30 29 26 21 22 23 22 24 25 25 29 30 30 28 28 30 29 28 22 27 26 25 25 23 21 22 21 23 23 24 23 23 23 24
19 20 21 23 24 25 26 27 28 28 29 28 26 25 24 24 24 23 23 22 21 21 19 18 21 23 20 24 24 21 23 25 25 26 25 26 25 22 27 27 26 23 21 21 22 21 19 20 20 18 18 19 20 19
16 16 17 19 19 19 19 20 22 22 21 21 22 22 21 19 18 17 18 20 18 15 13 18 21 22 22 25 24 22 17 16 19 21 24 22 21 28 26 23 21 19 18 17 17 17 17 17 16 16 16 17 17 19
13 13 13 14 15 15 14 14 14 17 19 19 18 18 17 18 17 16 14 13 10 12 14 13 18 26 19 22 18 19 19 22 20 18 18 17 21 21 19 19 17 15 14 15 16 17 18 18 17 16 16 15 17 19
10 10 11 11 11 12 13 14 14 14 16 16 18 20 16 13 14 14 15 14 13 12 12 14 19 17 20 23 18 20 19 18 17 14 16 15 14 15 15 14 14 15 16 17 17 15 17 20 22 20 17 17 18 18
9 11 10 9 10 11 12 13 15 17 18 19 18 17 14 13 13 14 17 11 9 12 13 19 21 19 20 21 19 17 13 14 12 11 11 11 11 12 13 13 14 16 15 10 9 11 10 10 16 23 21 18 17 17
9 9 10 12 14 18 22 22 22 24 24 19 17 19 16 12 13 14 12 12 17 17 16 18 17 22 18 14 13 14 12 9 9 7 9 8 8 10 11 12 10 12 8 8 9 4 2 4 2 9 14 15 16 17
15 19 21 23 22 22 25 31 24 20 18 17 15 16 18 19 17 17 18 20 23 21 20 18 19 17 16 15 9 8 11 8 7 5 9 9 7 8 4 8 11 8 9 7 5 7 5 7 7 5 10 9 5 9
23 24 23 27 38 35 29 28 26 23 21 22 20 19 19 21 23 23 22 24 24 22 21 19 18 17 16 12 9 11 9 6 6 6 8 10 7 9 15 12 8 5 5 6 7 6 4 2 3 4 6 8 7 8
26 39 40 33 32 30 27 25 24 24 25 22 22 24 18 18 20 27 28 21 19 20 21 18 19 18 13 10 10 8 4 2 10 17 13 10 8 7 7 6 5 3 3 3 4 5 5 5 4 4 4 5 6 7
44 40 34 33 29 26 28 29 30 24 16 13 17 18 19 15 17 17 18 23 17 17 14 16 16 15 14 12 10 7 4 11 17 14 10 9 9 9 8 5 4 2 1 1 2 2 2 2 3 5 8 8 9 11
37 32 29 27 30 31 32 27 22 18 18 23 21 24 20 24 18 18 22 18 14 13 14 15 15 15 12 8 8 11 12 12 12 10 9 8 8 8 8 8 6 4 2 2 1 3 3 2 3 4 5 6 8 9
28 25 28 27 26 23 22 24 20 17 17 20 17 19 28 22 17 17 13 11 14 14 13 12 13 16 14 8 10 11 9 7 7 7 7 6 7 7 6 6 5 3 3 3 4 2 0 0 2 4 6 7 7 6
31 29 26 23 23 25 24 28 33 29 26 21 22 26 28 25 16 16 17 16 19 21 14 14 13 14 14 12 9 6 5 6 6 5 5 5 5 5 3 3 5 4 4 4 4 3 3 3 4 4 5 6 6 6
30 26 22 22 21 20 20 21 23 26 24 23 21 20 18 18 18 20 18 17 16 20 20 16 14 13 11 9 7 4 3 4 5 4 3 2 3 5 5 4 3 4 4 5 6 6 5 5 4 4 5 6 8 10
23 22 24 24 23 22 21 17 19 21 16 21 17 20 20 19 24 20 17 16 14 15 14 13 11 9 7 6 5 3 4 5 3 2 2 4 5 4 1 2 3 4 5 6 4 4 5 6 7 9 10 11 13 14
28 24 27 25 21 17 17 18 20 29 30 25 21 22 25 23 19 15 12 12 12 11 11 10 9 9 8 6 6 6 5 4 3 2 3 5 2 2 2 3 4 5 4 3 4 6 8 9 11 12 14 15 17 17
27 25 24 24 22 22 19 20 22 23 23 20 15 14 12 11 9 10 11 10 9 9 11 11 9 8 9 10 10 8 8 7 6 5 4 1 1 2 2 2 2 2 4 6 8 10 11 12 13 14 15 17 19 20
22 20 21 20 17 15 17 20 22 20 16 16 15 13 12 10 9 8 9 9 8 8 12 11 12 12 11 9 7 5 4 4 3 2 1 0 1 2 2 1 4 5 7 8 8 8 10 12 14 16 17 17 17 17
17 16 15 13 11 12 14 15 16 14 13 13 11 12 12 12 14 14 13 10 10 13 14 11 11 12 10 5 5 4 3 3 5 5 4 2 1 3 3 4 6 6 4 4 7 12 14 16 16 16 16 17 18 18
15 16 17 17 14 12 11 13 13 13 13 13 13 14 14 12 12 11 11 11 10 9 9 9 7 6 6 5 6 6 6 5 3 1 2 2 4 5 6 5 4 5 6 9 13 16 17 17 17 17 17 18 19 20
19 20 19 18 14 16 16 17 15 13 13 15 13 9 7 6 6 6 5 8 9 8 6 4 4 6 7 7 5 3 1 1 3 4 5 8 9 9 6 6 7 8 10 14 15 16 17 17 18 19 20 21 22 22
23 22 19 20 18 17 17 16 14 14 14 13 11 11 11 10 8 7 6 6 5 6 6 6 5 5 4 3 2 3 5 6 7 9 9 9 8 6 7 8 10 12 13 14 15 16 17 18 19 20 21 21 21 23
14 15 14 13 13 13 13 12 11 10 9 7 7 6 5 5 5 5 6 7 6 6 6 5 4 4 3 3 4 5 6 8 8 6 6 6 6 7 9 10 11 13 14 15 16 18 19 20 21 21 20 20 22 24
9 7 6 5 5 6 9 10 11 11 11 11 11 11 10 9 8 8 7 7 6 5 3 3 4 5 6 7 8 8 8 7 6 7 7 7 8 9 10 12 15 16 17 18 19 19 19 19 20 20 21 23 25 26

GFSWCAN_500_spd_117.txt.gz
Wind_Speed
49 48 47 46 44 42 41 40 39 38 38 37 37 37 37 37 39 39 39 40 40 41 42 43 44 45 47 48 48 51 50 47 47 50 49 47 46 42 34 33 34 35 34 33 26 26 28 38 38 34 34 30 32 32
50 48 46 45 44 45 44 42 41 40 39 38 37 37 36 36 37 37 38 37 39 40 42 44 46 47 49 50 51 51 52 54 52 52 51 48 47 46 43 37 38 43 36 33 28 29 36 40 34 33 33 31 33 33
49 48 47 46 45 45 45 43 42 41 41 40 39 38 37 36 37 38 38 39 40 41 43 44 46 48 49 50 52 53 54 54 56 58 55 51 49 48 40 36 38 40 44 41 33 36 39 37 37 35 35 32 32 33
42 46 46 46 45 45 45 44 43 43 42 42 41 40 39 38 37 38 39 40 41 43 43 45 46 47 47 48 50 52 52 55 55 57 56 53 53 52 47 39 38 28 37 39 34 38 35 38 34 36 31 28 30 30
39 41 42 44 45 45 44 44 43 43 43 42 41 41 40 39 38 39 39 41 42 43 44 44 42 43 42 44 45 47 48 47 52 54 58 57 55 53 47 43 46 36 36 39 40 38 33 36 31 33 30 31 28 27
31 38 41 40 41 42 43 44 44 44 44 43 42 41 41 40 40 41 42 43 44 45 45 45 43 40 44 43 42 43 46 49 51 51 50 52 51 52 53 52 43 39 33 41 42 36 34 29 31 32 33 27 26 26
31 30 33 40 40 39 38 39 40 41 41 41 41 40 40 40 42 42 43 43 44 45 45 45 44 48 46 48 48 49 51 53 52 51 47 43 44 49 50 50 38 30 37 39 37 31 29 32 30 29 28 24 25 27
29 31 32 32 34 35 35 35 36 36 36 37 37 38 38 40 41 41 42 41 41 42 42 41 41 45 47 47 46 46 45 45 45 40 37 37 37 41 39 38 34 33 36 34 29 30 30 30 27 26 26 25 25 23
25 26 27 28 30 30 29 30 30 31 31 32 33 34 35 35 36 35 36 37 38 37 37 37 35 34 36 28 30 32 29 30 29 31 33 33 31 36 29 32 30 31 30 29 30 30 27 25 25 23 22 24 23 22
22 22 23 23 24 25 25 25 26 26 27 28 27 27 28 29 30 30 30 31 32 32 27 24 29 27 24 23 19 16 23 23 24 22 26 31 34 28 27 22 27 28 27 28 29 24 23 23 22 20 19 19 20 21
20 19 17 18 18 19 20 21 22 23 23 24 24 24 25 24 23 24 24 23 23 20 17 20 24 23 23 21 21 26 22 18 18 17 22 20 25 23 26 30 31 25 25 23 22 21 21 19 19 18 16 16 18 17
15 16 16 14 15 16 17 18 19 20 20 20 18 18 18 19 20 20 18 14 10 8 9 12 13 16 19 21 21 20 10 14 15 20 15 20 17 26 23 23 21 19 19 21 20 18 18 18 18 17 17 16 16 18
9 11 12 12 13 14 15 15 14 13 16 20 21 20 16 16 15 15 12 10 8 7 8 8 12 16 16 17 16 16 12 11 2 15 19 18 17 9 13 17 18 18 18 19 18 19 19 20 21 22 22 20 20 18
12 11 10 11 11 12 13 13 14 14 16 17 18 17 15 15 14 17 18 16 11 9 6 8 11 16 14 21 15 5 8 9 12 12 15 17 15 15 13 14 15 16 17 18 17 16 15 15 18 20 23 21 20 17
10 11 10 9 10 11 12 13 15 16 18 19 21 21 19 16 15 14 15 12 10 10 11 14 14 15 14 11 10 14 12 10 8 8 10 10 8 8 10 12 13 11 12 11 7 7 8 8 0 4 8 17 17 15
12 12 13 17 21 24 26 25 26 24 20 16 18 23 22 20 18 18 14 18 17 16 16 15 16 14 12 10 8 6 6 7 6 3 5 7 8 9 10 10 13 12 8 7 6 7 6 4 5 3 4 10 10 9
24 26 25 25 31 32 30 28 25 23 20 20 20 22 23 19 14 19 23 22 20 19 17 17 16 14 6 9 9 6 10 7 4 3 5 8 6 11 9 9 11 10 12 9 5 3 1 3 1 1 1 7 6 7
27 30 38 33 30 29 26 24 24 23 21 20 18 19 17 19 19 22 24 23 22 22 19 17 19 18 12 7 7 7 6 5 1 4 14 16 15 15 13 12 12 8 7 6 5 4 3 2 2 1 1 6 5 6
39 34 31 29 27 26 27 30 26 21 16 20 19 18 20 25 25 21 19 20 19 16 15 16 14 9 10 9 8 7 3 12 19 19 17 14 14 14 12 11 10 7 5 4 4 3 2 3 4 5 6 6 7 9
31 28 28 29 30 29 24 22 21 19 17 21 21 19 21 17 20 21 18 22 21 17 12 11 11 9 7 6 8 12 12 14 18 17 16 14 12 11 10 9 8 6 6 5 4 4 2 1 3 4 5 5 5 7
28 29 32 30 25 17 14 19 19 20 24 20 26 28 27 26 24 19 17 14 11 17 16 14 13 12 16 16 14 13 12 12 13 14 14 13 10 9 9 8 8 7 7 7 5 4 2 1 3 4 5 6 7 7
27 25 24 23 22 19 21 22 20 17 19 21 23 21 19 17 17 15 17 18 17 16 16 15 13 11 12 12 12 13 11 10 11 12 12 10 8 7 6 7 7 6 5 4 3 3 1 3 4 5 7 8 7 7
27 27 26 27 26 25 25 23 23 25 28 27 25 24 24 24 19 16 19 18 19 18 18 16 15 12 10 10 10 8 6 8 8 8 7 6 7 7 6 4 4 4 3 3 4 5 4 3 3 4 5 7 10 11
29 29 27 25 21 18 22 23 25 24 24 23 20 21 24 22 22 20 20 18 15 16 14 13 12 10 7 7 6 5 6 7 6 6 6 6 6 5 4 2 1 1 2 2 2 3 4 6 7 9 10 12 13 15
25 25 23 21 19 15 15 13 16 21 20 20 19 21 18 17 16 16 16 14 12 10 10 11 11 10 8 7 6 6 6 4 3 5 7 6 4 3 1 2 3 2 1 2 4 6 9 10 12 13 13 13 15 16
23 21 20 20 17 20 26 23 23 21 20 22 21 16 14 14 14 14 13 11 10 10 10 11 12 10 9 9 7 7 6 7 6 5 4 2 1 2 3 2 1 2 4 6 8 9 8 9 11 12 14 16 16 17
22 19 17 18 16 18 18 17 17 15 16 14 13 12 11 10 8 11 11 8 9 10 9 9 9 8 8 7 6 5 4 3 2 2 1 2 3 2 1 4 6 7 9 8 5 6 10 13 15 16 16 16 16 17
17 15 14 14 15 15 15 15 15 15 15 15 13 13 15 13 14 12 12 15 15 13 13 13 10 8 6 5 4 3 3 3 3 4 3 2 3 5 7 8 9 9 6 6 7 11 16 17 17 17 17 17 18 19
16 15 13 11 12 14 13 10 10 12 13 13 15 15 12 11 11 11 11 11 9 8 9 7 5 4 4 4 5 6 5 4 2 2 4 4 6 7 8 7 5 6 8 9 13 15 16 17 17 18 18 19 19 20
18 20 19 15 13 13 14 12 11 12 13 11 7 6 6 6 6 7 7 7 7 6 4 3 3 5 5 4 3 2 1 3 5 5 6 7 7 6 5 6 8 10 11 12 14 16 17 18 19 20 21 20 20 17
21 22 20 19 16 15 14 15 14 13 9 8 8 9 8 8 8 7 5 4 4 5 5 6 5 4 2 0 2 3 4 6 7 9 9 8 8 7 8 9 10 11 13 14 16 17 18 20 20 19 19 19 18 19
13 13 14 14 12 10 9 10 9 8 5 4 3 3 2 2 2 3 4 5 4 4 4 3 2 2 3 4 6 7 8 9 10 8 8 8 8 8 9 11 12 14 16 17 18 19 19 18 19 19 20 20 20 21
6 5 5 7 9 11 11 9 8 9 9 9 9 9 8 7 6 4 3 2 1 1 2 4 5 6 8 9 10 10 10 9 8 8 8 9 10 12 13 15 16 17 18 18 18 18 19 20 20 19 18 17 16 17

GFSWCAN_500_spd_123.txt.gz
Wind_Speed
36 37 42 43 41 40 38 38 36 35 36 37 36 36 37 39 38 40 43 46 46 46 45 48 47 44 44 44 46 46 45 49 46 48 49 48 47 44 45 45 42 37 31 37 37 40 46 41 37 34 39 35 35 37
44 40 36 33 32 31 33 37 40 39 38 37 36 36 36 37 37 37 37 37 38 40 43 42 42 46 46 48 46 44 41 42 46 47 47 47 45 42 40 42 39 40 37 35 39 40 38 44 36 37 30 33 40 45
48 46 43 40 39 39 36 35 35 38 42 40 39 38 37 37 36 36 36 36 36 35 37 37 37 40 40 41 41 39 38 40 42 43 42 42 43 44 43 41 41 40 42 46 44 43 49 45 42 44 50 49 47 45
45 45 46 45 42 41 40 39 39 38 38 42 41 40 39 39 38 37 36 36 37 36 37 38 37 36 36 38 39 39 38 40 40 42 43 43 44 45 46 47 46 44 43 46 51 50 48 52 46 53 53 38 42 33
42 43 42 41 39 38 37 38 40 39 39 38 42 42 41 41 40 40 39 38 37 37 36 36 35 37 37 37 38 39 40 40 41 42 44 44 45 49 49 51 46 41 41 47 50 48 52 48 53 55 45 49 25 24
35 37 37 37 35 33 32 33 35 36 36 38 40 41 42 41 42 43 40 39 37 37 37 36 36 37 38 38 39 40 40 40 42 44 45 46 47 49 53 53 45 45 39 45 54 46 45 49 51 47 43 51 21 28
29 29 28 29 29 30 28 28 27 28 32 35 38 40 42 42 42 42 41 40 40 39 38 37 38 39 38 39 40 41 42 43 45 47 48 49 51 54 58 56 49 51 42 38 49 54 53 42 54 45 35 47 39 38
25 25 27 28 29 28 26 24 24 27 28 30 33 34 37 39 40 39 41 38 38 39 38 38 36 39 40 40 42 44 44 46 47 47 49 53 53 59 63 60 57 55 47 46 44 53 45 47 56 60 52 50 37 37
24 23 25 24 24 24 23 24 26 28 28 29 29 29 30 33 34 33 35 36 36 37 36 35 34 34 41 41 42 44 46 46 46 48 47 47 49 54 42 47 51 51 51 47 44 45 42 42 32 39 46 44 42 39
24 23 22 23 23 23 24 25 26 26 26 26 26 25 25 25 27 27 28 30 31 32 32 29 34 31 36 37 39 41 40 38 40 37 40 37 22 25 25 25 29 32 38 37 39 42 43 41 47 40 44 46 33 35
21 20 21 21 22 23 24 23 23 22 21 20 19 20 20 19 20 22 22 23 24 24 25 27 28 29 31 31 34 36 32 34 31 21 25 22 20 22 21 21 21 29 29 28 26 29 34 32 23 32 34 32 30 29
18 17 17 17 18 18 18 16 17 19 19 17 15 14 14 15 16 16 15 16 16 17 19 21 23 26 29 31 31 28 29 26 17 17 23 15 16 19 10 11 12 19 19 14 26 27 20 24 21 24 22 20 22 27
13 13 12 13 14 14 14 16 17 17 17 17 16 15 15 14 12 10 10 12 13 12 11 10 9 10 10 12 13 16 15 14 13 11 13 16 20 11 10 17 15 13 12 2 18 9 8 19 15 17 20 23 23 24
11 11 11 10 12 15 15 15 16 16 16 16 16 15 12 12 12 11 12 13 13 12 7 6 7 8 8 8 7 7 7 6 8 10 13 3 9 9 9 6 22 13 11 8 8 8 11 13 16 17 20 20 22 27
14 14 13 13 13 13 14 15 15 15 15 15 15 16 17 20 20 26 9 9 11 6 5 9 11 10 8 8 8 4 2 4 7 7 12 8 7 1 3 4 3 8 8 6 4 6 6 8 11 12 14 15 15 22
12 13 13 13 13 14 15 15 15 14 12 15 20 20 19 16 16 15 8 15 10 18 18 13 11 10 7 6 6 4 5 6 5 7 6 4 4 4 1 1 4 4 4 4 4 3 6 6 7 8 8 7 4 4
13 12 13 13 13 13 14 16 17 17 19 22 22 19 20 18 17 14 16 14 19 22 17 17 15 12 11 7 6 5 7 5 6 5 5 5 5 4 1 3 4 5 7 5 5 1 5 7 9 4 2 4 4 6
25 26 26 26 26 26 25 22 22 22 23 24 22 18 18 17 15 12 16 18 21 17 14 9 7 11 7 5 4 10 6 6 8 7 7 7 9 7 1 3 6 5 4 8 6 6 9 10 9 6 6 4 3 6
33 33 34 35 36 37 35 30 24 22 24 24 21 20 18 16 18 18 21 23 21 14 14 4 6 6 7 4 2 3 2 3 9 11 12 9 9 11 16 14 10 10 11 8 6 6 6 4 4 5 5 3 3 3
30 27 25 23 25 22 23 26 22 19 21 22 23 23 23 22 21 20 21 14 13 10 13 10 7 4 2 3 3 6 11 12 13 14 13 15 15 13 15 14 13 12 11 9 8 6 5 5 5 6 6 6 5 4
26 25 24 29 30 30 26 23 21 20 24 27 28 27 25 23 20 15 15 19 16 12 8 7 8 9 9 8 10 11 15 15 15 15 14 11 11 12 11 11 11 10 8 7 7 6 4 3 5 5 5 6 6 7
29 29 30 29 28 28 25 23 25 27 26 25 24 21 19 19 19 20 10 9 9 11 9 14 9 15 14 15 15 13 15 15 10 9 10 10 8 8 8 8 8 8 6 5 4 3 2 3 4 5 5 5 5 6
29 29 28 27 27 26 24 23 28 30 28 23 17 21 23 21 14 12 14 12 10 12 15 13 13 18 18 16 14 12 11 10 8 5 3 4 4 6 6 5 5 4 4 3 3 3 3 3 2 3 5 7 9 10
34 31 30 31 30 29 27 30 32 25 20 23 25 24 19 19 18 16 15 13 13 13 13 10 8 11 11 10 9 8 7 6 5 3 3 5 5 4 3 3 3 3 2 1 1 2 4 5 7 8 9 9 9 9
34 34 33 34 36 35 32 30 27 21 28 24 19 20 18 17 17 14 13 10 10 8 8 9 10 11 10 10 9 7 5 3 2 4 5 4 3 1 1 2 2 1 2 3 4 6 7 6 6 8 10 11 12 12
26 30 28 23 20 25 25 22 21 21 19 19 19 17 15 13 12 13 13 12 11 11 11 11 11 8 7 5 5 4 4 2 1 2 2 1 2 3 2 2 2 3 5 6 8 8 5 5 9 13 14 14 14 15
40 26 22 22 23 23 20 17 15 14 14 13 12 11 11 12 10 9 10 10 6 5 7 8 7 6 5 3 1 1 1 1 1 0 1 2 2 3 4 5 6 7 9 9 7 7 9 12 15 16 16 16 17 17
25 22 18 21 18 15 14 14 14 15 14 14 13 12 12 11 10 10 9 7 4 4 4 4 4 2 1 1 2 2 1 2 3 3 3 4 6 6 9 10 11 11 8 8 9 11 12 14 16 16 17 18 19 20
19 19 20 18 16 14 15 16 17 17 15 12 11 11 11 10 10 9 8 8 7 6 5 4 3 3 2 2 2 3 2 2 4 6 7 8 10 12 12 13 12 10 10 11 13 13 14 16 17 18 19 20 19 18
13 14 13 11 12 12 13 14 12 10 10 9 7 8 7 7 7 6 5 4 4 3 4 5 4 4 3 3 3 4 7 9 10 11 11 12 13 12 11 11 10 10 11 12 15 16 17 18 19 20 20 19 20 21
12 12 11 11 11 10 10 8 9 9 9 8 8 8 7 6 4 4 4 4 4 4 4 4 4 4 6 7 8 8 11 12 13 14 15 15 13 12 11 11 12 13 15 16 17 18 19 20 20 19 20 20 18 17
13 11 10 10 10 9 8 7 7 7 6 5 4 4 5 5 6 6 5 4 4 4 5 6 7 8 9 10 12 12 12 13 14 15 14 13 13 13 14 15 16 18 19 20 21 21 21 21 22 20 17 16 15 15
11 11 10 9 8 8 9 10 10 10 11 11 10 10 9 7 6 6 6 7 8 9 10 11 11 13 14 14 15 16 17 17 16 14 13 14 15 16 17 19 20 21 21 22 22 22 23 21 20 18 17 17 18 19